Time,TemperatureF,DewpointF,PressureIn,WindDirection,WindDirectionDegrees,WindSpeedMPH,WindSpeedGustMPH,Humidity,HourlyPrecipIn,Conditions,Clouds,dailyrainin,SoftwareType,DateUTC
2013-08-31 00:00:00,79.6,68.8,28.99,North,4,11.0,14.0,69,0.00,,,0.00,WUHU216DAVISVP2,2013-08-31 04:00:00,
2013-08-31 00:01:00,79.5,69.1,28.99,North,354,9.0,14.0,70,0.00,,,0.00,WUHU216DAVISVP2,2013-08-31 04:01:00,
2013-08-31 00:02:00,79.3,68.9,28.98,NNE,14,5.0,14.0,70,0.00,,,0.00,WUHU216DAVISVP2,2013-08-31 04:02:00,
2013-08-31 00:03:00,79.2,69.2,28.98,North,4,5.0,14.0,71,0.00,,,0.00,WUHU216DAVISVP2,2013-08-31 04:03:00,
2013-08-31 00:06:00,78.7,69.1,28.98,North,354,4.0,14.0,72,0.00,,,0.00,WUHU216DAVISVP2,2013-08-31 04:06:00,
2013-08-31 00:07:00,78.5,69.3,28.99,North,359,4.0,14.0,73,0.00,,,0.00,WUHU216DAVISVP2,2013-08-31 04:07:00,
2013-08-31 00:09:00,78.3,69.1,28.99,North,4,3.0,14.0,73,0.00,,,0.00,WUHU216DAVISVP2,2013-08-31 04:09:00,
2013-08-31 00:11:00,78.1,68.9,28.99,NNW,339,5.0,14.0,73,0.00,,,0.00,WUHU216DAVISVP2,2013-08-31 04:11:00,
2013-08-31 00:12:00,78.1,68.9,28.99,NW,321,5.0,14.0,73,0.00,,,0.00,WUHU216DAVISVP2,2013-08-31 04:12:00,
2013-08-31 00:16:00,77.8,68.6,29.00,NW,316,4.0,14.0,73,0.00,,,0.00,WUHU216DAVISVP2,2013-08-31 04:16:00,
2013-08-31 00:17:00,77.7,68.5,29.00,NW,321,4.0,14.0,73,0.00,,,0.00,WUHU216DAVISVP2,2013-08-31 04:17:00,
2013-08-31 00:21:00,77.7,68.5,29.01,NNW,332,4.0,8.0,73,0.00,,,0.00,WUHU216DAVISVP2,2013-08-31 04:21:00,
2013-08-31 00:22:00,77.6,68.3,29.00,NW,316,4.0,8.0,73,0.00,,,0.00,WUHU216DAVISVP2,2013-08-31 04:22:00,
2013-08-31 00:24:00,77.6,68.3,29.00,NW,316,4.0,8.0,73,0.00,,,0.00,WUHU216DAVISVP2,2013-08-31 04:24:00,
2013-08-31 00:26:00,77.6,68.3,29.00,NW,316,4.0,7.0,73,0.00,,,0.00,WUHU216DAVISVP2,2013-08-31 04:26:00,
2013-08-31 00:27:00,77.6,68.3,29.01,NW,316,5.0,7.0,73,0.00,,,0.00,WUHU216DAVISVP2,2013-08-31 04:27:00,
2013-08-31 00:28:00,77.6,68.3,29.01,NW,320,5.0,7.0,73,0.00,,,0.00,WUHU216DAVISVP2,2013-08-31 04:28:00,
2013-08-31 00:30:00,77.6,68.3,29.01,NNW,334,5.0,7.0,73,0.00,,,0.00,WUHU216DAVISVP2,2013-08-31 04:30:00,
2013-08-31 00:31:00,77.5,68.2,29.01,NNW,334,4.0,7.0,73,0.00,,,0.00,WUHU216DAVISVP2,2013-08-31 04:31:00,
2013-08-31 00:32:00,77.5,68.2,29.01,NNW,335,4.0,7.0,73,0.00,,,0.00,WUHU216DAVISVP2,2013-08-31 04:32:00,
2013-08-31 00:34:00,77.5,68.2,29.02,NNW,335,4.0,7.0,73,0.00,,,0.00,WUHU216DAVISVP2,2013-08-31 04:34:00,
2013-08-31 00:35:00,77.5,68.2,29.02,NW,321,3.0,7.0,73,0.00,,,0.00,WUHU216DAVISVP2,2013-08-31 04:35:00,
2013-08-31 00:36:00,77.5,68.2,29.02,NW,308,5.0,7.0,73,0.00,,,0.00,WUHU216DAVISVP2,2013-08-31 04:36:00,
2013-08-31 00:37:00,77.5,68.2,29.02,NW,305,5.0,6.0,73,0.00,,,0.00,WUHU216DAVISVP2,2013-08-31 04:37:00,
2013-08-31 00:38:00,77.4,68.1,29.02,NW,305,3.0,6.0,73,0.00,,,0.00,WUHU216DAVISVP2,2013-08-31 04:38:00,
2013-08-31 00:39:00,77.4,68.1,29.01,NW,305,0.0,6.0,73,0.00,,,0.00,WUHU216DAVISVP2,2013-08-31 04:39:00,
2013-08-31 00:41:00,77.4,68.3,29.02,NW,305,1.0,6.0,73,0.00,,,0.00,WUHU216DAVISVP2,2013-08-31 04:41:00,
2013-08-31 00:42:00,77.4,68.3,29.02,NW,305,4.0,6.0,73,0.00,,,0.00,WUHU216DAVISVP2,2013-08-31 04:42:00,
2013-08-31 00:44:00,77.5,68.0,29.02,NW,305,1.0,6.0,72,0.00,,,0.00,WUHU216DAVISVP2,2013-08-31 04:44:00,
2013-08-31 00:45:00,77.5,68.0,29.02,NW,305,2.0,6.0,72,0.00,,,0.00,WUHU216DAVISVP2,2013-08-31 04:45:00,
2013-08-31 00:46:00,77.5,68.0,29.02,NW,319,5.0,6.0,72,0.00,,,0.00,WUHU216DAVISVP2,2013-08-31 04:46:00,
2013-08-31 00:47:00,77.5,68.0,29.02,NW,319,4.0,6.0,72,0.00,,,0.00,WUHU216DAVISVP2,2013-08-31 04:47:00,
2013-08-31 00:49:00,77.5,68.0,29.03,NW,315,7.0,7.0,72,0.00,,,0.00,WUHU216DAVISVP2,2013-08-31 04:49:00,
2013-08-31 00:50:00,77.6,67.7,29.03,NW,310,6.0,8.0,71,0.00,,,0.00,WUHU216DAVISVP2,2013-08-31 04:50:00,
2013-08-31 00:51:00,77.6,67.7,29.02,NW,314,5.0,8.0,71,0.00,,,0.00,WUHU216DAVISVP2,2013-08-31 04:51:00,
2013-08-31 00:52:00,77.6,67.7,29.02,NW,313,4.0,8.0,71,0.00,,,0.00,WUHU216DAVISVP2,2013-08-31 04:52:00,
2013-08-31 00:54:00,77.7,67.3,29.02,WNW,303,5.0,8.0,70,0.00,,,0.00,WUHU216DAVISVP2,2013-08-31 04:54:00,
2013-08-31 00:55:00,77.8,67.4,29.02,NW,312,5.0,8.0,70,0.00,,,0.00,WUHU216DAVISVP2,2013-08-31 04:55:00,
2013-08-31 00:57:00,77.8,67.4,29.02,NW,314,4.0,8.0,70,0.00,,,0.00,WUHU216DAVISVP2,2013-08-31 04:57:00,
2013-08-31 00:58:00,77.8,67.4,29.02,NW,305,6.0,8.0,70,0.00,,,0.00,WUHU216DAVISVP2,2013-08-31 04:58:00,
2013-08-31 00:59:00,77.8,67.4,29.02,NW,308,7.0,8.0,70,0.00,,,0.00,WUHU216DAVISVP2,2013-08-31 04:59:00,
2013-08-31 01:00:00,77.8,67.4,29.02,NW,315,5.0,8.0,70,0.00,,,0.00,WUHU216DAVISVP2,2013-08-31 05:00:00,
2013-08-31 01:02:00,77.8,67.4,29.02,NW,315,3.0,8.0,70,0.00,,,0.00,WUHU216DAVISVP2,2013-08-31 05:02:00,
2013-08-31 01:03:00,77.7,67.8,29.03,NW,308,9.0,10.0,71,0.00,,,0.00,WUHU216DAVISVP2,2013-08-31 05:03:00,
2013-08-31 01:04:00,77.7,67.3,29.03,NW,305,8.0,10.0,70,0.00,,,0.00,WUHU216DAVISVP2,2013-08-31 05:04:00,
2013-08-31 01:06:00,77.5,67.6,29.03,NW,307,9.0,10.0,71,0.00,,,0.00,WUHU216DAVISVP2,2013-08-31 05:06:00,
2013-08-31 01:07:00,77.5,67.6,29.03,West,278,8.0,10.0,71,0.00,,,0.00,WUHU216DAVISVP2,2013-08-31 05:07:00,
2013-08-31 01:08:00,77.4,67.5,29.03,West,274,10.0,12.0,71,0.00,,,0.00,WUHU216DAVISVP2,2013-08-31 05:08:00,
2013-08-31 01:10:00,77.3,67.8,29.03,WNW,295,12.0,12.0,72,0.00,,,0.00,WUHU216DAVISVP2,2013-08-31 05:10:00,
2013-08-31 01:12:00,77.0,67.9,29.03,WNW,284,9.0,12.0,73,0.00,,,0.00,WUHU216DAVISVP2,2013-08-31 05:12:00,
2013-08-31 01:13:00,76.9,68.2,29.03,WNW,301,9.0,12.0,74,0.00,,,0.00,WUHU216DAVISVP2,2013-08-31 05:13:00,
2013-08-31 01:17:00,76.6,68.2,29.03,WNW,294,7.0,12.0,75,0.00,,,0.00,WUHU216DAVISVP2,2013-08-31 05:17:00,
2013-08-31 01:18:00,76.5,68.5,29.03,WNW,303,7.0,12.0,76,0.00,,,0.00,WUHU216DAVISVP2,2013-08-31 05:18:00,
2013-08-31 01:19:00,76.4,68.8,29.03,NW,308,8.0,12.0,77,0.00,,,0.00,WUHU216DAVISVP2,2013-08-31 05:19:00,
2013-08-31 01:22:00,76.3,69.1,29.03,WNW,298,8.0,12.0,78,0.00,,,0.00,WUHU216DAVISVP2,2013-08-31 05:22:00,
2013-08-31 01:23:00,76.3,69.1,29.03,NW,310,7.0,12.0,78,0.00,,,0.00,WUHU216DAVISVP2,2013-08-31 05:23:00,
2013-08-31 01:24:00,76.2,69.0,29.03,WNW,301,6.0,12.0,78,0.00,,,0.00,WUHU216DAVISVP2,2013-08-31 05:24:00,
2013-08-31 01:25:00,76.1,68.9,29.03,WNW,302,5.0,12.0,78,0.00,,,0.00,WUHU216DAVISVP2,2013-08-31 05:25:00,
2013-08-31 01:27:00,76.0,68.8,29.03,NW,308,7.0,12.0,78,0.00,,,0.00,WUHU216DAVISVP2,2013-08-31 05:27:00,
2013-08-31 01:28:00,76.0,68.8,29.03,WNW,299,8.0,12.0,78,0.00,,,0.00,WUHU216DAVISVP2,2013-08-31 05:28:00,
2013-08-31 01:29:00,76.0,68.8,29.03,WNW,302,6.0,12.0,78,0.00,,,0.00,WUHU216DAVISVP2,2013-08-31 05:29:00,
2013-08-31 01:30:00,75.9,69.0,29.03,WNW,301,8.0,11.0,79,0.00,,,0.00,WUHU216DAVISVP2,2013-08-31 05:30:00,
2013-08-31 01:32:00,75.9,68.9,29.03,WNW,289,10.0,11.0,79,0.00,,,0.00,WUHU216DAVISVP2,2013-08-31 05:32:00,
2013-08-31 01:33:00,75.8,68.8,29.03,West,278,7.0,12.0,79,0.00,,,0.00,WUHU216DAVISVP2,2013-08-31 05:33:00,
2013-08-31 01:34:00,75.8,68.8,29.03,WNW,299,6.0,12.0,79,0.00,,,0.00,WUHU216DAVISVP2,2013-08-31 05:34:00,
2013-08-31 01:35:00,75.8,68.8,29.03,WNW,299,11.0,12.0,79,0.00,,,0.00,WUHU216DAVISVP2,2013-08-31 05:35:00,
2013-08-31 01:37:00,75.8,68.9,29.03,WNW,300,7.0,12.0,79,0.00,,,0.00,WUHU216DAVISVP2,2013-08-31 05:37:00,
2013-08-31 01:39:00,75.8,68.9,29.03,WNW,301,7.0,12.0,79,0.00,,,0.00,WUHU216DAVISVP2,2013-08-31 05:39:00,
2013-08-31 01:40:00,75.7,68.8,29.04,NW,305,8.0,12.0,79,0.00,,,0.00,WUHU216DAVISVP2,2013-08-31 05:40:00,
2013-08-31 01:41:00,75.7,68.8,29.04,WNW,297,8.0,12.0,79,0.00,,,0.00,WUHU216DAVISVP2,2013-08-31 05:41:00,
2013-08-31 01:43:00,75.7,69.2,29.03,WNW,301,6.0,12.0,80,0.00,,,0.00,WUHU216DAVISVP2,2013-08-31 05:43:00,
2013-08-31 01:44:00,75.7,69.2,29.03,NW,309,6.0,12.0,80,0.00,,,0.00,WUHU216DAVISVP2,2013-08-31 05:44:00,
2013-08-31 01:45:00,75.6,69.1,29.03,WNW,301,6.0,12.0,80,0.00,,,0.00,WUHU216DAVISVP2,2013-08-31 05:45:00,
2013-08-31 01:47:00,75.5,69.0,29.03,WNW,301,6.0,12.0,80,0.00,,,0.00,WUHU216DAVISVP2,2013-08-31 05:47:00,
2013-08-31 01:48:00,75.4,69.2,29.03,NW,308,9.0,12.0,81,0.00,,,0.00,WUHU216DAVISVP2,2013-08-31 05:48:00,
2013-08-31 01:49:00,75.4,69.2,29.03,NW,304,6.0,12.0,81,0.00,,,0.00,WUHU216DAVISVP2,2013-08-31 05:49:00,
2013-08-31 01:50:00,75.3,69.1,29.03,NW,306,6.0,12.0,81,0.00,,,0.00,WUHU216DAVISVP2,2013-08-31 05:50:00,
2013-08-31 01:53:00,75.2,69.1,29.03,WNW,299,8.0,12.0,81,0.00,,,0.00,WUHU216DAVISVP2,2013-08-31 05:53:00,
2013-08-31 01:54:00,75.1,69.0,29.03,WNW,292,6.0,12.0,81,0.00,,,0.00,WUHU216DAVISVP2,2013-08-31 05:54:00,
2013-08-31 01:55:00,75.1,69.3,29.03,WNW,292,7.0,12.0,82,0.00,,,0.00,WUHU216DAVISVP2,2013-08-31 05:55:00,
2013-08-31 01:57:00,75.0,69.2,29.03,WNW,297,6.0,12.0,82,0.00,,,0.00,WUHU216DAVISVP2,2013-08-31 05:57:00,
2013-08-31 01:58:00,75.0,69.2,29.04,WNW,297,8.0,12.0,82,0.00,,,0.00,WUHU216DAVISVP2,2013-08-31 05:58:00,
2013-08-31 01:59:00,75.0,69.2,29.04,WNW,300,4.0,12.0,82,0.00,,,0.00,WUHU216DAVISVP2,2013-08-31 05:59:00,
2013-08-31 02:00:00,75.0,69.2,29.04,WNW,300,6.0,12.0,82,0.00,,,0.00,WUHU216DAVISVP2,2013-08-31 06:00:00,
2013-08-31 02:03:00,74.9,69.0,29.02,WNW,301,4.0,11.0,82,0.00,,,0.00,WUHU216DAVISVP2,2013-08-31 06:03:00,
2013-08-31 02:04:00,74.8,68.9,29.02,WNW,295,8.0,11.0,82,0.00,,,0.00,WUHU216DAVISVP2,2013-08-31 06:04:00,
2013-08-31 02:05:00,74.8,68.9,29.02,WNW,300,7.0,11.0,82,0.00,,,0.00,WUHU216DAVISVP2,2013-08-31 06:05:00,
2013-08-31 02:08:00,74.7,68.9,29.02,WNW,283,9.0,11.0,82,0.00,,,0.00,WUHU216DAVISVP2,2013-08-31 06:08:00,
2013-08-31 02:09:00,74.7,68.9,29.02,WNW,282,5.0,11.0,82,0.00,,,0.00,WUHU216DAVISVP2,2013-08-31 06:09:00,
2013-08-31 02:10:00,74.7,68.9,29.02,WNW,283,6.0,11.0,82,0.00,,,0.00,WUHU216DAVISVP2,2013-08-31 06:10:00,
2013-08-31 02:13:00,74.7,68.8,29.02,WNW,295,5.0,11.0,82,0.00,,,0.00,WUHU216DAVISVP2,2013-08-31 06:13:00,
2013-08-31 02:14:00,74.6,68.7,29.02,NW,314,7.0,11.0,82,0.00,,,0.00,WUHU216DAVISVP2,2013-08-31 06:14:00,
2013-08-31 02:15:00,74.6,68.7,29.02,WNW,287,10.0,11.0,82,0.00,,,0.00,WUHU216DAVISVP2,2013-08-31 06:15:00,
2013-08-31 02:16:00,74.6,68.7,29.02,WNW,303,8.0,11.0,82,0.00,,,0.00,WUHU216DAVISVP2,2013-08-31 06:16:00,
2013-08-31 02:19:00,74.6,68.7,29.01,NW,314,9.0,11.0,82,0.00,,,0.00,WUHU216DAVISVP2,2013-08-31 06:19:00,
2013-08-31 02:20:00,74.5,68.6,29.01,NNW,335,6.0,11.0,82,0.00,,,0.00,WUHU216DAVISVP2,2013-08-31 06:20:00,
2013-08-31 02:21:00,74.5,68.6,29.01,NNW,332,7.0,11.0,82,0.00,,,0.00,WUHU216DAVISVP2,2013-08-31 06:21:00,
2013-08-31 02:23:00,74.4,68.6,29.00,NNW,332,5.0,11.0,82,0.00,,,0.00,WUHU216DAVISVP2,2013-08-31 06:23:00,
2013-08-31 02:24:00,74.4,68.6,29.00,NW,320,8.0,11.0,82,0.00,,,0.00,WUHU216DAVISVP2,2013-08-31 06:24:00,
2013-08-31 02:25:00,74.3,68.5,29.00,NNW,334,8.0,11.0,82,0.00,,,0.00,WUHU216DAVISVP2,2013-08-31 06:25:00,
2013-08-31 02:26:00,74.2,68.4,29.00,NNW,340,6.0,11.0,82,0.00,,,0.00,WUHU216DAVISVP2,2013-08-31 06:26:00,
2013-08-31 02:27:00,74.2,68.4,29.00,NNW,334,7.0,11.0,82,0.00,,,0.00,WUHU216DAVISVP2,2013-08-31 06:27:00,
2013-08-31 02:29:00,74.2,68.1,29.00,NNW,339,6.0,11.0,81,0.00,,,0.00,WUHU216DAVISVP2,2013-08-31 06:29:00,
2013-08-31 02:31:00,74.1,67.9,29.00,NW,325,5.0,11.0,81,0.00,,,0.00,WUHU216DAVISVP2,2013-08-31 06:31:00,
2013-08-31 02:32:00,74.1,67.9,29.00,NNW,332,8.0,11.0,81,0.00,,,0.00,WUHU216DAVISVP2,2013-08-31 06:32:00,
2013-08-31 02:34:00,74.0,68.2,29.00,NNW,340,7.0,11.0,82,0.00,,,0.00,WUHU216DAVISVP2,2013-08-31 06:34:00,
2013-08-31 02:36:00,73.9,68.1,29.00,NNW,339,6.0,11.0,82,0.00,,,0.00,WUHU216DAVISVP2,2013-08-31 06:36:00,
2013-08-31 02:37:00,73.8,68.0,29.00,NNW,347,9.0,12.0,82,0.00,,,0.00,WUHU216DAVISVP2,2013-08-31 06:37:00,
2013-08-31 02:38:00,73.7,67.9,29.00,NNW,343,8.0,12.0,82,0.00,,,0.00,WUHU216DAVISVP2,2013-08-31 06:38:00,
2013-08-31 02:39:00,73.7,67.9,29.00,NNW,339,9.0,12.0,82,0.00,,,0.00,WUHU216DAVISVP2,2013-08-31 06:39:00,
2013-08-31 02:41:00,73.6,67.8,29.00,NNW,337,7.0,12.0,82,0.00,,,0.00,WUHU216DAVISVP2,2013-08-31 06:41:00,
2013-08-31 02:42:00,73.6,67.8,29.00,NW,324,9.0,12.0,82,0.00,,,0.00,WUHU216DAVISVP2,2013-08-31 06:42:00,
2013-08-31 02:43:00,73.5,67.7,28.99,NNW,347,5.0,12.0,82,0.00,,,0.00,WUHU216DAVISVP2,2013-08-31 06:43:00,
2013-08-31 02:44:00,73.5,67.7,28.99,NNW,345,8.0,12.0,82,0.00,,,0.00,WUHU216DAVISVP2,2013-08-31 06:44:00,
2013-08-31 02:45:00,73.5,67.7,28.99,NNW,345,5.0,12.0,82,0.00,,,0.00,WUHU216DAVISVP2,2013-08-31 06:45:00,
2013-08-31 02:47:00,73.4,67.6,29.00,NW,326,8.0,12.0,82,0.00,,,0.00,WUHU216DAVISVP2,2013-08-31 06:47:00,
2013-08-31 02:48:00,73.3,67.5,29.00,North,350,8.0,12.0,82,0.00,,,0.00,WUHU216DAVISVP2,2013-08-31 06:48:00,
2013-08-31 02:49:00,73.3,67.5,29.00,NNW,335,7.0,12.0,82,0.00,,,0.00,WUHU216DAVISVP2,2013-08-31 06:49:00,
2013-08-31 02:50:00,73.3,67.5,29.00,NNW,340,7.0,12.0,82,0.00,,,0.00,WUHU216DAVISVP2,2013-08-31 06:50:00,
2013-08-31 02:52:00,73.2,67.8,29.00,North,4,6.0,12.0,83,0.00,,,0.00,WUHU216DAVISVP2,2013-08-31 06:52:00,
2013-08-31 02:53:00,73.1,67.7,28.99,NNW,332,6.0,12.0,83,0.00,,,0.00,WUHU216DAVISVP2,2013-08-31 06:53:00,
2013-08-31 02:54:00,73.1,67.6,28.99,NNW,334,5.0,12.0,83,0.00,,,0.00,WUHU216DAVISVP2,2013-08-31 06:54:00,
2013-08-31 02:57:00,73.0,67.5,28.99,North,8,4.0,10.0,83,0.00,,,0.00,WUHU216DAVISVP2,2013-08-31 06:57:00,
2013-08-31 02:58:00,73.0,67.5,28.99,NNW,335,6.0,10.0,83,0.00,,,0.00,WUHU216DAVISVP2,2013-08-31 06:58:00,
2013-08-31 02:59:00,73.0,67.5,28.99,North,349,7.0,10.0,83,0.00,,,0.00,WUHU216DAVISVP2,2013-08-31 06:59:00,
2013-08-31 03:00:00,73.0,67.5,28.99,North,349,7.0,10.0,83,0.00,,,0.00,WUHU216DAVISVP2,2013-08-31 07:00:00,
2013-08-31 03:02:00,73.0,67.5,28.99,North,10,5.0,10.0,83,0.00,,,0.00,WUHU216DAVISVP2,2013-08-31 07:02:00,
2013-08-31 03:03:00,73.0,67.5,28.99,North,350,7.0,10.0,83,0.00,,,0.00,WUHU216DAVISVP2,2013-08-31 07:03:00,
2013-08-31 03:04:00,72.9,67.4,28.99,North,4,6.0,10.0,83,0.00,,,0.00,WUHU216DAVISVP2,2013-08-31 07:04:00,
2013-08-31 03:05:00,72.9,67.5,28.99,NNW,339,7.0,10.0,83,0.00,,,0.00,WUHU216DAVISVP2,2013-08-31 07:05:00,
2013-08-31 03:07:00,72.9,67.5,28.99,NNW,342,4.0,10.0,83,0.00,,,0.00,WUHU216DAVISVP2,2013-08-31 07:07:00,
2013-08-31 03:08:00,72.9,67.5,28.98,North,354,4.0,10.0,83,0.00,,,0.00,WUHU216DAVISVP2,2013-08-31 07:08:00,
2013-08-31 03:09:00,72.9,67.5,28.98,North,350,6.0,10.0,83,0.00,,,0.00,WUHU216DAVISVP2,2013-08-31 07:09:00,
2013-08-31 03:10:00,72.9,67.5,28.98,North,354,4.0,10.0,83,0.00,,,0.00,WUHU216DAVISVP2,2013-08-31 07:10:00,
2013-08-31 03:12:00,72.8,67.4,28.98,NNW,335,4.0,10.0,83,0.00,,,0.00,WUHU216DAVISVP2,2013-08-31 07:12:00,
2013-08-31 03:14:00,72.8,67.3,28.99,NNW,343,4.0,9.0,83,0.00,,,0.00,WUHU216DAVISVP2,2013-08-31 07:14:00,
2013-08-31 03:15:00,72.8,67.3,28.98,North,4,5.0,9.0,83,0.00,,,0.00,WUHU216DAVISVP2,2013-08-31 07:15:00,
2013-08-31 03:16:00,72.8,67.3,28.98,North,4,4.0,9.0,83,0.00,,,0.00,WUHU216DAVISVP2,2013-08-31 07:16:00,
2013-08-31 03:17:00,72.8,67.3,28.98,NNW,348,4.0,9.0,83,0.00,,,0.00,WUHU216DAVISVP2,2013-08-31 07:17:00,
2013-08-31 03:18:00,72.8,67.3,28.98,North,349,4.0,9.0,83,0.00,,,0.00,WUHU216DAVISVP2,2013-08-31 07:18:00,
2013-08-31 03:19:00,72.8,67.3,28.98,NNW,348,5.0,8.0,83,0.00,,,0.00,WUHU216DAVISVP2,2013-08-31 07:19:00,
2013-08-31 03:20:00,72.7,67.2,28.98,North,4,5.0,8.0,83,0.00,,,0.00,WUHU216DAVISVP2,2013-08-31 07:20:00,
2013-08-31 03:21:00,72.7,67.6,28.98,North,4,5.0,8.0,84,0.00,,,0.00,WUHU216DAVISVP2,2013-08-31 07:21:00,
2013-08-31 03:22:00,72.7,67.6,28.98,North,4,6.0,8.0,84,0.00,,,0.00,WUHU216DAVISVP2,2013-08-31 07:22:00,
2013-08-31 03:23:00,72.6,67.5,28.98,North,4,7.0,8.0,84,0.00,,,0.00,WUHU216DAVISVP2,2013-08-31 07:23:00,
2013-08-31 03:24:00,72.6,67.5,28.98,North,359,9.0,10.0,84,0.00,,,0.00,WUHU216DAVISVP2,2013-08-31 07:24:00,
2013-08-31 03:25:00,72.5,67.4,28.98,North,9,7.0,11.0,84,0.00,,,0.00,WUHU216DAVISVP2,2013-08-31 07:25:00,
2013-08-31 03:26:00,72.5,67.4,28.98,North,4,7.0,11.0,84,0.00,,,0.00,WUHU216DAVISVP2,2013-08-31 07:26:00,
2013-08-31 03:27:00,72.4,67.3,28.98,NNE,15,6.0,11.0,84,0.00,,,0.00,WUHU216DAVISVP2,2013-08-31 07:27:00,
2013-08-31 03:28:00,72.4,67.3,28.98,NNE,25,8.0,11.0,84,0.00,,,0.00,WUHU216DAVISVP2,2013-08-31 07:28:00,
2013-08-31 03:29:00,72.2,67.1,28.98,NNE,21,10.0,11.0,84,0.00,,,0.00,WUHU216DAVISVP2,2013-08-31 07:29:00,
2013-08-31 03:30:00,72.1,67.4,28.98,NNE,18,5.0,11.0,85,0.00,,,0.00,WUHU216DAVISVP2,2013-08-31 07:30:00,
2013-08-31 03:31:00,72.1,67.4,28.98,NNE,13,6.0,11.0,85,0.00,,,0.00,WUHU216DAVISVP2,2013-08-31 07:31:00,
2013-08-31 03:32:00,72.0,67.3,28.98,North,4,7.0,11.0,85,0.00,,,0.00,WUHU216DAVISVP2,2013-08-31 07:32:00,
2013-08-31 03:33:00,72.0,67.3,28.98,NNE,23,7.0,11.0,85,0.00,,,0.00,WUHU216DAVISVP2,2013-08-31 07:33:00,
2013-08-31 03:34:00,71.9,67.2,28.99,NNE,31,7.0,11.0,85,0.00,,,0.00,WUHU216DAVISVP2,2013-08-31 07:34:00,
2013-08-31 03:35:00,71.9,67.2,28.99,NE,35,7.0,11.0,85,0.00,,,0.00,WUHU216DAVISVP2,2013-08-31 07:35:00,
2013-08-31 03:37:00,71.8,67.1,28.98,NNE,18,8.0,11.0,85,0.00,,,0.00,WUHU216DAVISVP2,2013-08-31 07:37:00,
2013-08-31 03:38:00,71.8,67.1,28.99,NNE,31,8.0,11.0,85,0.00,,,0.00,WUHU216DAVISVP2,2013-08-31 07:38:00,
2013-08-31 03:40:00,71.7,67.3,28.99,North,4,7.0,11.0,86,0.00,,,0.00,WUHU216DAVISVP2,2013-08-31 07:40:00,
2013-08-31 03:42:00,71.6,67.2,28.99,North,11,6.0,11.0,86,0.00,,,0.00,WUHU216DAVISVP2,2013-08-31 07:42:00,
2013-08-31 03:43:00,71.6,67.2,28.99,NNE,21,5.0,11.0,86,0.00,,,0.00,WUHU216DAVISVP2,2013-08-31 07:43:00,
2013-08-31 03:45:00,71.5,67.1,28.99,NNE,15,8.0,11.0,86,0.00,,,0.00,WUHU216DAVISVP2,2013-08-31 07:45:00,
2013-08-31 03:46:00,71.5,67.1,28.99,North,354,8.0,11.0,86,0.00,,,0.00,WUHU216DAVISVP2,2013-08-31 07:46:00,
2013-08-31 03:48:00,71.4,67.0,28.99,NNW,347,7.0,10.0,86,0.00,,,0.00,WUHU216DAVISVP2,2013-08-31 07:48:00,
2013-08-31 03:50:00,71.4,67.0,28.99,North,4,6.0,10.0,86,0.00,,,0.00,WUHU216DAVISVP2,2013-08-31 07:50:00,
2013-08-31 03:51:00,71.3,66.9,28.99,NNW,346,6.0,10.0,86,0.00,,,0.00,WUHU216DAVISVP2,2013-08-31 07:51:00,
2013-08-31 03:53:00,71.3,66.9,28.99,NNW,346,4.0,10.0,86,0.00,,,0.00,WUHU216DAVISVP2,2013-08-31 07:53:00,
2013-08-31 03:55:00,71.2,66.8,28.99,NNW,346,4.0,10.0,86,0.00,,,0.00,WUHU216DAVISVP2,2013-08-31 07:55:00,
2013-08-31 03:56:00,71.2,66.8,28.99,NNW,346,5.0,10.0,86,0.00,,,0.00,WUHU216DAVISVP2,2013-08-31 07:56:00,
2013-08-31 03:57:00,71.2,67.1,28.99,NNW,346,5.0,10.0,87,0.00,,,0.00,WUHU216DAVISVP2,2013-08-31 07:57:00,
2013-08-31 03:58:00,71.1,67.0,28.99,North,359,5.0,10.0,87,0.00,,,0.00,WUHU216DAVISVP2,2013-08-31 07:58:00,
2013-08-31 03:59:00,71.1,67.0,28.99,North,354,5.0,10.0,87,0.00,,,0.00,WUHU216DAVISVP2,2013-08-31 07:59:00,
2013-08-31 04:01:00,71.1,67.0,28.99,North,359,6.0,10.0,87,0.00,,,0.00,WUHU216DAVISVP2,2013-08-31 08:01:00,
2013-08-31 04:03:00,71.0,66.9,28.99,NNE,13,4.0,10.0,87,0.00,,,0.00,WUHU216DAVISVP2,2013-08-31 08:03:00,
2013-08-31 04:04:00,71.0,66.9,28.98,NNE,14,6.0,9.0,87,0.00,,,0.00,WUHU216DAVISVP2,2013-08-31 08:04:00,
2013-08-31 04:06:00,71.0,66.9,28.98,NNE,17,5.0,9.0,87,0.00,,,0.00,WUHU216DAVISVP2,2013-08-31 08:06:00,
2013-08-31 04:09:00,70.9,66.8,28.98,NNE,20,5.0,8.0,87,0.00,,,0.00,WUHU216DAVISVP2,2013-08-31 08:09:00,
2013-08-31 04:11:00,70.9,66.8,28.98,NE,34,7.0,9.0,87,0.00,,,0.00,WUHU216DAVISVP2,2013-08-31 08:11:00,
2013-08-31 04:12:00,70.8,66.7,28.98,NE,34,7.0,9.0,87,0.00,,,0.00,WUHU216DAVISVP2,2013-08-31 08:12:00,
2013-08-31 04:14:00,70.8,67.1,28.99,NNE,15,6.0,9.0,88,0.00,,,0.00,WUHU216DAVISVP2,2013-08-31 08:14:00,
2013-08-31 04:15:00,70.8,67.1,28.99,NNE,21,6.0,9.0,88,0.00,,,0.00,WUHU216DAVISVP2,2013-08-31 08:15:00,
2013-08-31 04:17:00,70.8,67.1,28.99,NNE,12,6.0,9.0,88,0.00,,,0.00,WUHU216DAVISVP2,2013-08-31 08:17:00,
2013-08-31 04:19:00,70.7,67.0,28.99,NNE,23,5.0,9.0,88,0.00,,,0.00,WUHU216DAVISVP2,2013-08-31 08:19:00,
2013-08-31 04:20:00,70.7,67.0,28.99,NNE,14,7.0,9.0,88,0.00,,,0.00,WUHU216DAVISVP2,2013-08-31 08:20:00,
2013-08-31 04:21:00,70.7,67.0,28.99,NNE,14,5.0,9.0,88,0.00,,,0.00,WUHU216DAVISVP2,2013-08-31 08:21:00,
2013-08-31 04:22:00,70.6,66.9,28.99,NNE,12,4.0,9.0,88,0.00,,,0.00,WUHU216DAVISVP2,2013-08-31 08:22:00,
2013-08-31 04:24:00,70.6,66.9,28.99,North,4,5.0,9.0,88,0.00,,,0.00,WUHU216DAVISVP2,2013-08-31 08:24:00,
2013-08-31 04:25:00,70.6,67.2,28.99,North,8,8.0,9.0,89,0.00,,,0.00,WUHU216DAVISVP2,2013-08-31 08:25:00,
2013-08-31 04:26:00,70.5,67.1,28.99,North,9,5.0,9.0,89,0.00,,,0.00,WUHU216DAVISVP2,2013-08-31 08:26:00,
2013-08-31 04:27:00,70.5,67.1,29.00,North,9,7.0,9.0,89,0.00,,,0.00,WUHU216DAVISVP2,2013-08-31 08:27:00,
2013-08-31 04:28:00,70.5,67.1,29.00,North,359,7.0,9.0,89,0.00,,,0.00,WUHU216DAVISVP2,2013-08-31 08:28:00,
2013-08-31 04:30:00,70.4,67.0,29.00,North,4,6.0,9.0,89,0.00,,,0.00,WUHU216DAVISVP2,2013-08-31 08:30:00,
2013-08-31 04:32:00,70.4,67.0,29.00,North,4,5.0,9.0,89,0.00,,,0.00,WUHU216DAVISVP2,2013-08-31 08:32:00,
2013-08-31 04:33:00,70.4,67.0,28.99,North,359,4.0,9.0,89,0.00,,,0.00,WUHU216DAVISVP2,2013-08-31 08:33:00,
2013-08-31 04:35:00,70.4,67.0,29.00,North,359,1.0,9.0,89,0.00,,,0.00,WUHU216DAVISVP2,2013-08-31 08:35:00,
2013-08-31 04:37:00,70.4,67.0,29.00,North,359,4.0,9.0,89,0.00,,,0.00,WUHU216DAVISVP2,2013-08-31 08:37:00,
2013-08-31 04:38:00,70.4,67.0,29.00,North,359,4.0,9.0,89,0.00,,,0.00,WUHU216DAVISVP2,2013-08-31 08:38:00,
2013-08-31 04:39:00,70.4,67.3,29.00,North,359,3.0,9.0,90,0.00,,,0.00,WUHU216DAVISVP2,2013-08-31 08:39:00,
2013-08-31 04:40:00,70.4,67.3,29.00,NW,324,4.0,9.0,90,0.00,,,0.00,WUHU216DAVISVP2,2013-08-31 08:40:00,
2013-08-31 04:41:00,70.4,67.3,29.00,NW,324,3.0,9.0,90,0.00,,,0.00,WUHU216DAVISVP2,2013-08-31 08:41:00,
2013-08-31 04:42:00,70.4,67.3,29.00,NW,324,2.0,9.0,90,0.00,,,0.00,WUHU216DAVISVP2,2013-08-31 08:42:00,
2013-08-31 04:43:00,70.3,67.2,29.00,NW,324,2.0,8.0,90,0.00,,,0.00,WUHU216DAVISVP2,2013-08-31 08:43:00,
2013-08-31 04:44:00,70.3,66.9,29.00,NNW,338,4.0,8.0,89,0.00,,,0.00,WUHU216DAVISVP2,2013-08-31 08:44:00,
2013-08-31 04:45:00,70.3,67.2,29.00,NNW,338,1.0,8.0,90,0.00,,,0.00,WUHU216DAVISVP2,2013-08-31 08:45:00,
2013-08-31 04:46:00,70.2,67.1,29.00,NNW,338,2.0,8.0,90,0.00,,,0.00,WUHU216DAVISVP2,2013-08-31 08:46:00,
2013-08-31 04:47:00,70.2,67.1,29.00,NNW,338,1.0,8.0,90,0.00,,,0.00,WUHU216DAVISVP2,2013-08-31 08:47:00,
2013-08-31 04:48:00,70.2,67.1,29.00,NNW,338,1.0,8.0,90,0.00,,,0.00,WUHU216DAVISVP2,2013-08-31 08:48:00,
2013-08-31 04:49:00,70.2,67.1,29.00,NNW,338,1.0,7.0,90,0.00,,,0.00,WUHU216DAVISVP2,2013-08-31 08:49:00,
2013-08-31 04:51:00,70.2,67.1,29.00,NNW,338,3.0,7.0,90,0.00,,,0.00,WUHU216DAVISVP2,2013-08-31 08:51:00,
2013-08-31 04:52:00,70.2,67.1,29.00,NNW,338,2.0,6.0,90,0.00,,,0.00,WUHU216DAVISVP2,2013-08-31 08:52:00,
2013-08-31 04:53:00,70.1,67.0,29.00,NNW,338,1.0,6.0,90,0.00,,,0.00,WUHU216DAVISVP2,2013-08-31 08:53:00,
2013-08-31 04:54:00,70.1,67.0,29.00,NNW,338,2.0,6.0,90,0.00,,,0.00,WUHU216DAVISVP2,2013-08-31 08:54:00,
2013-08-31 04:56:00,70.1,67.0,29.00,NNW,338,1.0,6.0,90,0.00,,,0.00,WUHU216DAVISVP2,2013-08-31 08:56:00,
2013-08-31 04:57:00,70.1,67.0,29.00,NNW,338,1.0,6.0,90,0.00,,,0.00,WUHU216DAVISVP2,2013-08-31 08:57:00,
2013-08-31 04:59:00,70.1,67.0,29.00,NNW,338,1.0,5.0,90,0.00,,,0.00,WUHU216DAVISVP2,2013-08-31 08:59:00,
2013-08-31 05:00:00,70.1,67.0,29.00,NNW,338,0.0,5.0,90,0.00,,,0.00,WUHU216DAVISVP2,2013-08-31 09:00:00,
2013-08-31 05:01:00,70.1,67.0,29.01,NNW,337,0.0,5.0,90,0.00,,,0.00,WUHU216DAVISVP2,2013-08-31 09:01:00,
2013-08-31 05:02:00,70.0,66.9,29.00,NNW,337,0.0,5.0,90,0.00,,,0.00,WUHU216DAVISVP2,2013-08-31 09:02:00,
2013-08-31 05:03:00,70.1,67.0,29.01,NNW,338,0.0,5.0,90,0.00,,,0.00,WUHU216DAVISVP2,2013-08-31 09:03:00,
2013-08-31 05:04:00,70.0,66.9,29.01,NNW,338,0.0,5.0,90,0.00,,,0.00,WUHU216DAVISVP2,2013-08-31 09:04:00,
2013-08-31 05:05:00,70.1,67.3,29.01,NNW,338,2.0,5.0,91,0.00,,,0.00,WUHU216DAVISVP2,2013-08-31 09:05:00,
2013-08-31 05:06:00,70.0,67.2,29.01,NNW,338,1.0,5.0,91,0.00,,,0.00,WUHU216DAVISVP2,2013-08-31 09:06:00,
2013-08-31 05:07:00,70.0,67.2,29.01,NNW,338,3.0,5.0,91,0.00,,,0.00,WUHU216DAVISVP2,2013-08-31 09:07:00,
2013-08-31 05:09:00,70.0,67.2,29.01,NNW,338,2.0,5.0,91,0.00,,,0.00,WUHU216DAVISVP2,2013-08-31 09:09:00,
2013-08-31 05:10:00,70.0,67.2,29.01,NNW,338,1.0,5.0,91,0.00,,,0.00,WUHU216DAVISVP2,2013-08-31 09:10:00,
2013-08-31 05:11:00,70.0,67.2,29.01,NNW,338,0.0,5.0,91,0.00,,,0.00,WUHU216DAVISVP2,2013-08-31 09:11:00,
2013-08-31 05:12:00,70.0,67.2,29.01,NNW,338,1.0,5.0,91,0.00,,,0.00,WUHU216DAVISVP2,2013-08-31 09:12:00,
2013-08-31 05:13:00,70.0,67.2,29.01,NNW,338,1.0,5.0,91,0.00,,,0.00,WUHU216DAVISVP2,2013-08-31 09:13:00,
2013-08-31 05:14:00,70.0,67.2,29.01,NNW,337,2.0,5.0,91,0.00,,,0.00,WUHU216DAVISVP2,2013-08-31 09:14:00,
2013-08-31 05:15:00,70.0,67.2,29.01,WNW,287,4.0,5.0,91,0.00,,,0.00,WUHU216DAVISVP2,2013-08-31 09:15:00,
2013-08-31 05:16:00,70.0,67.2,29.01,WNW,287,2.0,5.0,91,0.00,,,0.00,WUHU216DAVISVP2,2013-08-31 09:16:00,
2013-08-31 05:17:00,70.0,67.2,29.01,WNW,286,1.0,5.0,91,0.00,,,0.00,WUHU216DAVISVP2,2013-08-31 09:17:00,
2013-08-31 05:18:00,70.0,67.2,29.01,WNW,286,0.0,5.0,91,0.00,,,0.00,WUHU216DAVISVP2,2013-08-31 09:18:00,
2013-08-31 05:19:00,70.0,67.2,29.01,WNW,286,2.0,5.0,91,0.00,,,0.00,WUHU216DAVISVP2,2013-08-31 09:19:00,
2013-08-31 05:21:00,70.0,67.2,29.01,WNW,286,0.0,5.0,91,0.00,,,0.00,WUHU216DAVISVP2,2013-08-31 09:21:00,
2013-08-31 05:23:00,70.0,67.2,29.01,WNW,286,1.0,5.0,91,0.00,,,0.00,WUHU216DAVISVP2,2013-08-31 09:23:00,
2013-08-31 05:24:00,70.0,67.2,29.01,WNW,286,1.0,5.0,91,0.00,,,0.00,WUHU216DAVISVP2,2013-08-31 09:24:00,
2013-08-31 05:27:00,70.0,67.2,29.01,West,280,0.0,5.0,91,0.00,,,0.00,WUHU216DAVISVP2,2013-08-31 09:27:00,
2013-08-31 05:28:00,70.1,67.3,29.01,West,280,3.0,5.0,91,0.00,,,0.00,WUHU216DAVISVP2,2013-08-31 09:28:00,
2013-08-31 05:29:00,70.0,67.2,29.01,West,280,0.0,5.0,91,0.00,,,0.00,WUHU216DAVISVP2,2013-08-31 09:29:00,
2013-08-31 05:32:00,70.0,67.2,29.01,West,281,4.0,5.0,91,0.00,,,0.00,WUHU216DAVISVP2,2013-08-31 09:32:00,
2013-08-31 05:33:00,69.9,67.1,29.01,West,281,4.0,5.0,91,0.00,,,0.00,WUHU216DAVISVP2,2013-08-31 09:33:00,
2013-08-31 05:34:00,69.9,67.1,29.01,West,281,4.0,5.0,91,0.00,,,0.00,WUHU216DAVISVP2,2013-08-31 09:34:00,
2013-08-31 05:37:00,69.7,66.9,29.02,West,281,4.0,5.0,91,0.00,,,0.00,WUHU216DAVISVP2,2013-08-31 09:37:00,
2013-08-31 05:38:00,69.7,66.9,29.02,West,281,5.0,5.0,91,0.00,,,0.00,WUHU216DAVISVP2,2013-08-31 09:38:00,
2013-08-31 05:39:00,69.7,66.9,29.02,West,280,4.0,5.0,91,0.00,,,0.00,WUHU216DAVISVP2,2013-08-31 09:39:00,
2013-08-31 05:40:00,69.7,66.9,29.02,West,280,4.0,5.0,91,0.00,,,0.00,WUHU216DAVISVP2,2013-08-31 09:40:00,
2013-08-31 05:42:00,69.6,67.1,29.01,West,281,2.0,5.0,92,0.00,,,0.00,WUHU216DAVISVP2,2013-08-31 09:42:00,
2013-08-31 05:43:00,69.6,67.1,29.01,West,281,1.0,5.0,92,0.00,,,0.00,WUHU216DAVISVP2,2013-08-31 09:43:00,
2013-08-31 05:44:00,69.6,67.1,29.01,West,281,4.0,6.0,92,0.00,,,0.00,WUHU216DAVISVP2,2013-08-31 09:44:00,
2013-08-31 05:45:00,69.6,67.1,29.01,West,281,1.0,6.0,92,0.00,,,0.00,WUHU216DAVISVP2,2013-08-31 09:45:00,
2013-08-31 05:48:00,69.7,67.2,29.01,West,281,4.0,6.0,92,0.00,,,0.00,WUHU216DAVISVP2,2013-08-31 09:48:00,
2013-08-31 05:50:00,69.6,67.1,29.01,West,281,3.0,6.0,92,0.00,,,0.00,WUHU216DAVISVP2,2013-08-31 09:50:00,
2013-08-31 05:51:00,69.6,67.1,29.01,West,280,3.0,6.0,92,0.00,,,0.00,WUHU216DAVISVP2,2013-08-31 09:51:00,
2013-08-31 05:53:00,69.7,67.2,29.02,West,280,2.0,6.0,92,0.00,,,0.00,WUHU216DAVISVP2,2013-08-31 09:53:00,
2013-08-31 05:56:00,69.7,67.2,29.02,West,271,2.0,6.0,92,0.00,,,0.00,WUHU216DAVISVP2,2013-08-31 09:56:00,
2013-08-31 05:58:00,69.7,67.2,29.02,West,271,0.0,6.0,92,0.00,,,0.00,WUHU216DAVISVP2,2013-08-31 09:58:00,
2013-08-31 05:59:00,69.7,67.2,29.02,West,271,0.0,6.0,92,0.00,,,0.00,WUHU216DAVISVP2,2013-08-31 09:59:00,
2013-08-31 06:01:00,69.7,67.2,29.02,West,271,1.0,6.0,92,0.00,,,0.00,WUHU216DAVISVP2,2013-08-31 10:01:00,
2013-08-31 06:03:00,69.7,67.2,29.02,West,271,2.0,5.0,92,0.00,,,0.00,WUHU216DAVISVP2,2013-08-31 10:03:00,
2013-08-31 06:04:00,69.7,67.2,29.02,West,271,2.0,5.0,92,0.00,,,0.00,WUHU216DAVISVP2,2013-08-31 10:04:00,
2013-08-31 06:06:00,69.7,67.2,29.02,West,271,4.0,5.0,92,0.00,,,0.00,WUHU216DAVISVP2,2013-08-31 10:06:00,
2013-08-31 06:07:00,69.7,67.2,29.02,West,271,2.0,5.0,92,0.00,,,0.00,WUHU216DAVISVP2,2013-08-31 10:07:00,
2013-08-31 06:08:00,69.7,67.2,29.02,West,271,4.0,5.0,92,0.00,,,0.00,WUHU216DAVISVP2,2013-08-31 10:08:00,
2013-08-31 06:09:00,69.7,67.2,29.02,West,271,4.0,5.0,92,0.00,,,0.00,WUHU216DAVISVP2,2013-08-31 10:09:00,
2013-08-31 06:10:00,69.7,67.2,29.02,West,271,1.0,5.0,92,0.00,,,0.00,WUHU216DAVISVP2,2013-08-31 10:10:00,
2013-08-31 06:11:00,69.7,67.2,29.02,West,271,2.0,5.0,92,0.00,,,0.00,WUHU216DAVISVP2,2013-08-31 10:11:00,
2013-08-31 06:12:00,69.7,67.2,29.02,West,271,1.0,5.0,92,0.00,,,0.00,WUHU216DAVISVP2,2013-08-31 10:12:00,
2013-08-31 06:13:00,69.7,67.2,29.02,West,271,4.0,5.0,92,0.00,,,0.00,WUHU216DAVISVP2,2013-08-31 10:13:00,
2013-08-31 06:15:00,69.6,67.1,29.02,West,276,2.0,5.0,92,0.00,,,0.00,WUHU216DAVISVP2,2013-08-31 10:15:00,
2013-08-31 06:16:00,69.6,67.1,29.02,West,277,2.0,5.0,92,0.00,,,0.00,WUHU216DAVISVP2,2013-08-31 10:16:00,
2013-08-31 06:17:00,69.6,67.1,29.02,West,277,4.0,5.0,92,0.00,,,0.00,WUHU216DAVISVP2,2013-08-31 10:17:00,
2013-08-31 06:19:00,69.6,67.1,29.02,WNW,295,5.0,9.0,92,0.00,,,0.00,WUHU216DAVISVP2,2013-08-31 10:19:00,
2013-08-31 06:20:00,69.6,67.1,29.02,WNW,295,1.0,9.0,92,0.00,,,0.00,WUHU216DAVISVP2,2013-08-31 10:20:00,
2013-08-31 06:22:00,69.6,67.1,29.01,WNW,291,2.0,9.0,92,0.00,,,0.00,WUHU216DAVISVP2,2013-08-31 10:22:00,
2013-08-31 06:23:00,69.5,67.0,29.01,WNW,291,2.0,9.0,92,0.00,,,0.00,WUHU216DAVISVP2,2013-08-31 10:23:00,
2013-08-31 06:24:00,69.6,67.1,29.01,WNW,291,4.0,9.0,92,0.00,,,0.00,WUHU216DAVISVP2,2013-08-31 10:24:00,
2013-08-31 06:25:00,69.6,67.1,29.01,WNW,291,4.0,9.0,92,0.00,,,0.00,WUHU216DAVISVP2,2013-08-31 10:25:00,
2013-08-31 06:27:00,69.6,67.1,29.02,WNW,291,3.0,9.0,92,0.00,,,0.00,WUHU216DAVISVP2,2013-08-31 10:27:00,
2013-08-31 06:29:00,69.6,67.1,29.02,WNW,291,4.0,9.0,92,0.00,,,0.00,WUHU216DAVISVP2,2013-08-31 10:29:00,
2013-08-31 06:30:00,69.6,67.1,29.02,WNW,291,4.0,9.0,92,0.00,,,0.00,WUHU216DAVISVP2,2013-08-31 10:30:00,
2013-08-31 06:31:00,69.6,67.1,29.02,WNW,291,4.0,9.0,92,0.00,,,0.00,WUHU216DAVISVP2,2013-08-31 10:31:00,
2013-08-31 06:32:00,69.6,67.1,29.01,WNW,287,2.0,9.0,92,0.00,,,0.00,WUHU216DAVISVP2,2013-08-31 10:32:00,
2013-08-31 06:34:00,69.5,67.0,29.02,West,270,5.0,9.0,92,0.00,,,0.00,WUHU216DAVISVP2,2013-08-31 10:34:00,
2013-08-31 06:35:00,69.6,67.1,29.02,West,270,6.0,9.0,92,0.00,,,0.00,WUHU216DAVISVP2,2013-08-31 10:35:00,
2013-08-31 06:36:00,69.6,67.1,29.02,West,270,4.0,9.0,92,0.00,,,0.00,WUHU216DAVISVP2,2013-08-31 10:36:00,
2013-08-31 06:38:00,69.6,67.1,29.02,WNW,282,6.0,8.0,92,0.00,,,0.00,WUHU216DAVISVP2,2013-08-31 10:38:00,
2013-08-31 06:39:00,69.6,67.1,29.02,WNW,282,4.0,8.0,92,0.00,,,0.00,WUHU216DAVISVP2,2013-08-31 10:39:00,
2013-08-31 06:40:00,69.6,67.1,29.02,WNW,282,2.0,8.0,92,0.00,,,0.00,WUHU216DAVISVP2,2013-08-31 10:40:00,
2013-08-31 06:41:00,69.6,67.1,29.02,WNW,284,4.0,8.0,92,0.00,,,0.00,WUHU216DAVISVP2,2013-08-31 10:41:00,
2013-08-31 06:43:00,69.6,67.1,29.02,WNW,284,4.0,8.0,92,0.00,,,0.00,WUHU216DAVISVP2,2013-08-31 10:43:00,
2013-08-31 06:44:00,69.6,67.1,29.02,WNW,290,4.0,8.0,92,0.00,,,0.00,WUHU216DAVISVP2,2013-08-31 10:44:00,
2013-08-31 06:45:00,69.6,67.1,29.02,WNW,290,6.0,8.0,92,0.00,,,0.00,WUHU216DAVISVP2,2013-08-31 10:45:00,
2013-08-31 06:46:00,69.6,67.1,29.02,WNW,289,4.0,8.0,92,0.00,,,0.00,WUHU216DAVISVP2,2013-08-31 10:46:00,
2013-08-31 06:48:00,69.6,67.1,29.01,WNW,290,6.0,8.0,92,0.00,,,0.00,WUHU216DAVISVP2,2013-08-31 10:48:00,
2013-08-31 06:49:00,69.6,67.1,29.01,WNW,289,4.0,8.0,92,0.00,,,0.00,WUHU216DAVISVP2,2013-08-31 10:49:00,
2013-08-31 06:50:00,69.6,67.1,29.01,WNW,290,3.0,8.0,92,0.00,,,0.00,WUHU216DAVISVP2,2013-08-31 10:50:00,
2013-08-31 06:51:00,69.6,67.1,29.02,WNW,289,2.0,8.0,92,0.00,,,0.00,WUHU216DAVISVP2,2013-08-31 10:51:00,
2013-08-31 06:52:00,69.6,67.1,29.02,WNW,289,0.0,8.0,92,0.00,,,0.00,WUHU216DAVISVP2,2013-08-31 10:52:00,
2013-08-31 06:53:00,69.6,67.1,29.02,WNW,289,2.0,8.0,92,0.00,,,0.00,WUHU216DAVISVP2,2013-08-31 10:53:00,
2013-08-31 06:54:00,69.6,67.1,29.02,WNW,290,1.0,8.0,92,0.00,,,0.00,WUHU216DAVISVP2,2013-08-31 10:54:00,
2013-08-31 06:56:00,69.6,67.1,29.02,WNW,289,5.0,8.0,92,0.00,,,0.00,WUHU216DAVISVP2,2013-08-31 10:56:00,
2013-08-31 06:57:00,69.6,67.1,29.02,WNW,289,3.0,8.0,92,0.00,,,0.00,WUHU216DAVISVP2,2013-08-31 10:57:00,
2013-08-31 06:58:00,69.6,67.1,29.02,WNW,289,4.0,8.0,92,0.00,,,0.00,WUHU216DAVISVP2,2013-08-31 10:58:00,
2013-08-31 06:59:00,69.6,67.1,29.01,WNW,289,7.0,8.0,92,0.00,,,0.00,WUHU216DAVISVP2,2013-08-31 10:59:00,
2013-08-31 07:01:00,69.7,67.2,29.01,WNW,289,5.0,7.0,92,0.00,,,0.00,WUHU216DAVISVP2,2013-08-31 11:01:00,
2013-08-31 07:02:00,69.7,67.2,29.01,WNW,289,5.0,7.0,92,0.00,,,0.00,WUHU216DAVISVP2,2013-08-31 11:02:00,
2013-08-31 07:04:00,69.7,67.2,29.01,WNW,290,6.0,9.0,92,0.00,,,0.00,WUHU216DAVISVP2,2013-08-31 11:04:00,
2013-08-31 07:05:00,69.7,67.2,29.01,WNW,290,4.0,9.0,92,0.00,,,0.00,WUHU216DAVISVP2,2013-08-31 11:05:00,
2013-08-31 07:07:00,69.7,67.2,29.01,WNW,290,0.0,9.0,92,0.00,,,0.00,WUHU216DAVISVP2,2013-08-31 11:07:00,
2013-08-31 07:09:00,69.7,67.2,29.01,WNW,290,1.0,9.0,92,0.00,,,0.00,WUHU216DAVISVP2,2013-08-31 11:09:00,
2013-08-31 07:10:00,69.7,67.2,29.02,WNW,290,0.0,9.0,92,0.00,,,0.00,WUHU216DAVISVP2,2013-08-31 11:10:00,
2013-08-31 07:12:00,69.7,67.6,29.02,WNW,290,0.0,9.0,93,0.00,,,0.00,WUHU216DAVISVP2,2013-08-31 11:12:00,
2013-08-31 07:13:00,69.7,67.6,29.02,WNW,290,0.0,9.0,93,0.00,,,0.00,WUHU216DAVISVP2,2013-08-31 11:13:00,
2013-08-31 07:14:00,69.7,67.6,29.02,WNW,290,4.0,9.0,93,0.00,,,0.00,WUHU216DAVISVP2,2013-08-31 11:14:00,
2013-08-31 07:15:00,69.7,67.6,29.02,WNW,290,0.0,9.0,93,0.00,,,0.00,WUHU216DAVISVP2,2013-08-31 11:15:00,
2013-08-31 07:18:00,69.7,67.6,29.02,WNW,290,1.0,9.0,93,0.00,,,0.00,WUHU216DAVISVP2,2013-08-31 11:18:00,
2013-08-31 07:19:00,69.7,67.6,29.02,WNW,290,2.0,9.0,93,0.00,,,0.00,WUHU216DAVISVP2,2013-08-31 11:19:00,
2013-08-31 07:20:00,69.7,67.6,29.02,WNW,290,0.0,9.0,93,0.00,,,0.00,WUHU216DAVISVP2,2013-08-31 11:20:00,
2013-08-31 07:23:00,69.7,67.6,29.02,WNW,290,1.0,6.0,93,0.00,,,0.00,WUHU216DAVISVP2,2013-08-31 11:23:00,
2013-08-31 07:24:00,69.7,67.6,29.02,WNW,290,2.0,6.0,93,0.00,,,0.00,WUHU216DAVISVP2,2013-08-31 11:24:00,
2013-08-31 07:25:00,69.7,67.6,29.02,WNW,290,2.0,6.0,93,0.00,,,0.00,WUHU216DAVISVP2,2013-08-31 11:25:00,
2013-08-31 07:28:00,69.6,67.5,29.02,WNW,290,2.0,6.0,93,0.00,,,0.00,WUHU216DAVISVP2,2013-08-31 11:28:00,
2013-08-31 07:29:00,69.6,67.5,29.02,WNW,290,3.0,6.0,93,0.00,,,0.00,WUHU216DAVISVP2,2013-08-31 11:29:00,
2013-08-31 07:30:00,69.6,67.5,29.02,WNW,290,2.0,6.0,93,0.00,,,0.00,WUHU216DAVISVP2,2013-08-31 11:30:00,
2013-08-31 07:34:00,69.6,67.5,29.02,WNW,290,1.0,6.0,93,0.00,,,0.00,WUHU216DAVISVP2,2013-08-31 11:34:00,
2013-08-31 07:35:00,69.6,67.5,29.02,WNW,290,4.0,6.0,93,0.00,,,0.00,WUHU216DAVISVP2,2013-08-31 11:35:00,
2013-08-31 07:39:00,69.5,67.4,29.02,WNW,290,2.0,6.0,93,0.00,,,0.00,WUHU216DAVISVP2,2013-08-31 11:39:00,
2013-08-31 07:40:00,69.5,67.4,29.02,WNW,290,4.0,6.0,93,0.00,,,0.00,WUHU216DAVISVP2,2013-08-31 11:40:00,
2013-08-31 07:41:00,69.5,67.4,29.02,WNW,290,0.0,6.0,93,0.00,,,0.00,WUHU216DAVISVP2,2013-08-31 11:41:00,
2013-08-31 07:44:00,69.5,67.4,29.02,WNW,290,4.0,6.0,93,0.00,,,0.00,WUHU216DAVISVP2,2013-08-31 11:44:00,
2013-08-31 07:45:00,69.5,67.4,29.02,WNW,290,3.0,6.0,93,0.00,,,0.00,WUHU216DAVISVP2,2013-08-31 11:45:00,
2013-08-31 07:46:00,69.5,67.4,29.02,WNW,290,5.0,6.0,93,0.00,,,0.00,WUHU216DAVISVP2,2013-08-31 11:46:00,
2013-08-31 07:50:00,69.5,67.4,29.02,WNW,290,2.0,6.0,93,0.00,,,0.00,WUHU216DAVISVP2,2013-08-31 11:50:00,
2013-08-31 07:51:00,69.5,67.4,29.02,WNW,290,2.0,6.0,93,0.00,,,0.00,WUHU216DAVISVP2,2013-08-31 11:51:00,
2013-08-31 07:52:00,69.5,67.4,29.02,WNW,290,0.0,6.0,93,0.00,,,0.00,WUHU216DAVISVP2,2013-08-31 11:52:00,
2013-08-31 07:55:00,69.5,67.4,29.02,WNW,290,5.0,6.0,93,0.00,,,0.00,WUHU216DAVISVP2,2013-08-31 11:55:00,
2013-08-31 07:56:00,69.5,67.4,29.02,WNW,290,7.0,7.0,93,0.00,,,0.00,WUHU216DAVISVP2,2013-08-31 11:56:00,
2013-08-31 07:57:00,69.5,67.4,29.02,WNW,290,2.0,7.0,93,0.00,,,0.00,WUHU216DAVISVP2,2013-08-31 11:57:00,
2013-08-31 07:59:00,69.5,67.4,29.02,WNW,290,3.0,7.0,93,0.00,,,0.00,WUHU216DAVISVP2,2013-08-31 11:59:00,
2013-08-31 08:00:00,69.5,67.4,29.03,WNW,290,5.0,7.0,93,0.00,,,0.00,WUHU216DAVISVP2,2013-08-31 12:00:00,
2013-08-31 08:01:00,69.5,67.4,29.03,WNW,290,3.0,7.0,93,0.00,,,0.00,WUHU216DAVISVP2,2013-08-31 12:01:00,
2013-08-31 08:02:00,69.5,67.4,29.03,WNW,290,4.0,7.0,93,0.00,,,0.00,WUHU216DAVISVP2,2013-08-31 12:02:00,
2013-08-31 08:03:00,69.5,67.4,29.03,WNW,290,4.0,7.0,93,0.00,,,0.00,WUHU216DAVISVP2,2013-08-31 12:03:00,
2013-08-31 08:04:00,69.5,67.7,29.03,WNW,290,4.0,7.0,94,0.00,,,0.00,WUHU216DAVISVP2,2013-08-31 12:04:00,
2013-08-31 08:05:00,69.6,67.8,29.03,WNW,290,1.0,7.0,94,0.00,,,0.00,WUHU216DAVISVP2,2013-08-31 12:05:00,
2013-08-31 08:06:00,69.6,67.8,29.03,WNW,290,6.0,7.0,94,0.00,,,0.00,WUHU216DAVISVP2,2013-08-31 12:06:00,
2013-08-31 08:08:00,69.6,67.8,29.03,WNW,290,6.0,7.0,94,0.00,,,0.00,WUHU216DAVISVP2,2013-08-31 12:08:00,
2013-08-31 08:10:00,69.6,67.8,29.03,WNW,290,5.0,7.0,94,0.00,,,0.00,WUHU216DAVISVP2,2013-08-31 12:10:00,
2013-08-31 08:11:00,69.6,67.8,29.03,WNW,290,5.0,7.0,94,0.00,,,0.00,WUHU216DAVISVP2,2013-08-31 12:11:00,
2013-08-31 08:14:00,69.6,67.5,29.03,WNW,290,4.0,7.0,93,0.00,,,0.00,WUHU216DAVISVP2,2013-08-31 12:14:00,
2013-08-31 08:15:00,69.6,67.5,29.03,WNW,290,5.0,7.0,93,0.00,,,0.00,WUHU216DAVISVP2,2013-08-31 12:15:00,
2013-08-31 08:16:00,69.6,67.5,29.03,WNW,290,4.0,7.0,93,0.00,,,0.00,WUHU216DAVISVP2,2013-08-31 12:16:00,
2013-08-31 08:19:00,69.6,67.5,29.03,WNW,290,5.0,8.0,93,0.00,,,0.00,WUHU216DAVISVP2,2013-08-31 12:19:00,
2013-08-31 08:20:00,69.6,67.5,29.03,WNW,290,5.0,8.0,93,0.00,,,0.00,WUHU216DAVISVP2,2013-08-31 12:20:00,
2013-08-31 08:21:00,69.6,67.5,29.02,WNW,290,6.0,8.0,93,0.00,,,0.00,WUHU216DAVISVP2,2013-08-31 12:21:00,
2013-08-31 08:22:00,69.6,67.5,29.02,WNW,290,6.0,8.0,93,0.00,,,0.00,WUHU216DAVISVP2,2013-08-31 12:22:00,
2013-08-31 08:25:00,69.6,67.5,29.03,NW,308,9.0,9.0,93,0.00,,,0.00,WUHU216DAVISVP2,2013-08-31 12:25:00,
2013-08-31 08:26:00,69.6,67.5,29.03,NW,316,6.0,9.0,93,0.00,,,0.00,WUHU216DAVISVP2,2013-08-31 12:26:00,
2013-08-31 08:27:00,69.6,67.5,29.03,WNW,300,5.0,9.0,93,0.00,,,0.00,WUHU216DAVISVP2,2013-08-31 12:27:00,
2013-08-31 08:31:00,69.6,67.5,29.03,WNW,303,5.0,10.0,93,0.00,,,0.00,WUHU216DAVISVP2,2013-08-31 12:31:00,
2013-08-31 08:32:00,69.6,67.5,29.02,NW,305,5.0,10.0,93,0.00,,,0.00,WUHU216DAVISVP2,2013-08-31 12:32:00,
2013-08-31 08:36:00,69.7,67.6,29.02,WNW,299,7.0,10.0,93,0.00,,,0.00,WUHU216DAVISVP2,2013-08-31 12:36:00,
2013-08-31 08:37:00,69.7,67.6,29.02,WNW,299,3.0,10.0,93,0.00,,,0.00,WUHU216DAVISVP2,2013-08-31 12:37:00,
2013-08-31 08:38:00,69.7,67.6,29.02,WNW,303,7.0,10.0,93,0.00,,,0.00,WUHU216DAVISVP2,2013-08-31 12:38:00,
2013-08-31 08:41:00,69.7,67.6,29.03,WNW,299,9.0,10.0,93,0.00,,,0.00,WUHU216DAVISVP2,2013-08-31 12:41:00,
2013-08-31 08:42:00,69.7,67.6,29.03,WNW,301,6.0,10.0,93,0.00,,,0.00,WUHU216DAVISVP2,2013-08-31 12:42:00,
2013-08-31 08:43:00,69.8,67.7,29.03,WNW,292,7.0,10.0,93,0.00,,,0.00,WUHU216DAVISVP2,2013-08-31 12:43:00,
2013-08-31 08:44:00,69.8,67.7,29.03,WNW,292,5.0,10.0,93,0.00,,,0.00,WUHU216DAVISVP2,2013-08-31 12:44:00,
2013-08-31 08:46:00,69.9,67.8,29.03,WNW,293,5.0,10.0,93,0.00,,,0.00,WUHU216DAVISVP2,2013-08-31 12:46:00,
2013-08-31 08:47:00,69.9,67.8,29.03,WNW,293,6.0,9.0,93,0.00,,,0.00,WUHU216DAVISVP2,2013-08-31 12:47:00,
2013-08-31 08:48:00,69.9,67.8,29.03,WNW,291,9.0,9.0,93,0.00,,,0.00,WUHU216DAVISVP2,2013-08-31 12:48:00,
2013-08-31 08:49:00,69.9,67.8,29.03,WNW,295,6.0,9.0,93,0.00,,,0.00,WUHU216DAVISVP2,2013-08-31 12:49:00,
2013-08-31 08:51:00,69.9,67.8,29.03,WNW,292,5.0,9.0,93,0.00,,,0.00,WUHU216DAVISVP2,2013-08-31 12:51:00,
2013-08-31 08:52:00,70.0,67.9,29.03,WNW,296,6.0,9.0,93,0.00,,,0.00,WUHU216DAVISVP2,2013-08-31 12:52:00,
2013-08-31 08:53:00,70.0,67.9,29.03,WNW,297,7.0,9.0,93,0.00,,,0.00,WUHU216DAVISVP2,2013-08-31 12:53:00,
2013-08-31 08:54:00,70.0,67.9,29.03,WNW,297,6.0,9.0,93,0.00,,,0.00,WUHU216DAVISVP2,2013-08-31 12:54:00,
2013-08-31 08:56:00,70.1,68.0,29.03,WNW,298,6.0,9.0,93,0.00,,,0.00,WUHU216DAVISVP2,2013-08-31 12:56:00,
2013-08-31 08:57:00,70.2,68.1,29.03,WNW,297,1.0,9.0,93,0.00,,,0.00,WUHU216DAVISVP2,2013-08-31 12:57:00,
2013-08-31 08:59:00,70.4,68.2,29.03,WNW,297,5.0,9.0,93,0.00,,,0.00,WUHU216DAVISVP2,2013-08-31 12:59:00,
2013-08-31 09:01:00,70.5,68.3,29.03,NW,308,9.0,9.0,93,0.00,,,0.00,WUHU216DAVISVP2,2013-08-31 13:01:00,
2013-08-31 09:02:00,70.6,68.1,29.03,WNW,301,7.0,9.0,92,0.00,,,0.00,WUHU216DAVISVP2,2013-08-31 13:02:00,
2013-08-31 09:04:00,70.6,68.1,29.03,NW,312,5.0,9.0,92,0.00,,,0.00,WUHU216DAVISVP2,2013-08-31 13:04:00,
2013-08-31 09:05:00,70.7,68.5,29.03,NW,325,7.0,9.0,93,0.00,,,0.00,WUHU216DAVISVP2,2013-08-31 13:05:00,
2013-08-31 09:07:00,70.9,68.4,29.03,NW,322,5.0,9.0,92,0.00,,,0.00,WUHU216DAVISVP2,2013-08-31 13:07:00,
2013-08-31 09:09:00,71.0,68.5,29.03,NW,305,8.0,9.0,92,0.00,,,0.00,WUHU216DAVISVP2,2013-08-31 13:09:00,
2013-08-31 09:10:00,71.0,68.5,29.03,NW,305,8.0,9.0,92,0.00,,,0.00,WUHU216DAVISVP2,2013-08-31 13:10:00,
2013-08-31 09:13:00,71.1,68.6,29.03,NW,324,6.0,9.0,92,0.00,,,0.00,WUHU216DAVISVP2,2013-08-31 13:13:00,
2013-08-31 09:15:00,71.2,68.7,29.03,NW,312,5.0,9.0,92,0.00,,,0.00,WUHU216DAVISVP2,2013-08-31 13:15:00,
2013-08-31 09:16:00,71.3,68.8,29.03,NNW,330,5.0,9.0,92,0.00,,,0.00,WUHU216DAVISVP2,2013-08-31 13:16:00,
2013-08-31 09:18:00,71.3,68.8,29.03,WNW,299,8.0,9.0,92,0.00,,,0.00,WUHU216DAVISVP2,2013-08-31 13:18:00,
2013-08-31 09:20:00,71.5,69.0,29.03,NW,311,6.0,9.0,92,0.00,,,0.00,WUHU216DAVISVP2,2013-08-31 13:20:00,
2013-08-31 09:21:00,71.5,69.0,29.04,NW,305,7.0,9.0,92,0.00,,,0.00,WUHU216DAVISVP2,2013-08-31 13:21:00,
2013-08-31 09:22:00,71.5,69.0,29.04,WNW,303,7.0,9.0,92,0.00,,,0.00,WUHU216DAVISVP2,2013-08-31 13:22:00,
2013-08-31 09:23:00,71.6,69.1,29.04,NW,323,5.0,9.0,92,0.00,,,0.00,WUHU216DAVISVP2,2013-08-31 13:23:00,
2013-08-31 09:25:00,71.8,69.3,29.03,WNW,303,5.0,9.0,92,0.00,,,0.00,WUHU216DAVISVP2,2013-08-31 13:25:00,
2013-08-31 09:26:00,71.9,69.1,29.03,NNW,334,6.0,9.0,91,0.00,,,0.00,WUHU216DAVISVP2,2013-08-31 13:26:00,
2013-08-31 09:27:00,71.9,69.1,29.03,NNW,337,6.0,9.0,91,0.00,,,0.00,WUHU216DAVISVP2,2013-08-31 13:27:00,
2013-08-31 09:28:00,71.9,69.1,29.03,NW,311,5.0,9.0,91,0.00,,,0.00,WUHU216DAVISVP2,2013-08-31 13:28:00,
2013-08-31 09:30:00,72.1,69.3,29.04,NW,314,3.0,8.0,91,0.00,,,0.00,WUHU216DAVISVP2,2013-08-31 13:30:00,
2013-08-31 09:32:00,72.2,69.4,29.04,WNW,300,7.0,8.0,91,0.00,,,0.00,WUHU216DAVISVP2,2013-08-31 13:32:00,
2013-08-31 09:33:00,72.2,69.4,29.04,WNW,298,6.0,8.0,91,0.00,,,0.00,WUHU216DAVISVP2,2013-08-31 13:33:00,
2013-08-31 09:35:00,72.3,69.5,29.04,WNW,298,5.0,8.0,91,0.00,,,0.00,WUHU216DAVISVP2,2013-08-31 13:35:00,
2013-08-31 09:37:00,72.3,69.5,29.04,WNW,298,2.0,8.0,91,0.00,,,0.00,WUHU216DAVISVP2,2013-08-31 13:37:00,
2013-08-31 09:38:00,72.4,69.6,29.04,WNW,298,5.0,8.0,91,0.00,,,0.00,WUHU216DAVISVP2,2013-08-31 13:38:00,
2013-08-31 09:40:00,72.4,69.3,29.03,WNW,298,5.0,8.0,90,0.00,,,0.00,WUHU216DAVISVP2,2013-08-31 13:40:00,
2013-08-31 09:42:00,72.3,69.2,29.03,NW,316,6.0,8.0,90,0.00,,,0.00,WUHU216DAVISVP2,2013-08-31 13:42:00,
2013-08-31 09:43:00,72.3,69.2,29.03,NW,316,6.0,8.0,90,0.00,,,0.00,WUHU216DAVISVP2,2013-08-31 13:43:00,
2013-08-31 09:44:00,72.3,69.2,29.03,NW,316,4.0,8.0,90,0.00,,,0.00,WUHU216DAVISVP2,2013-08-31 13:44:00,
2013-08-31 09:46:00,72.3,69.2,29.03,NW,316,5.0,8.0,90,0.00,,,0.00,WUHU216DAVISVP2,2013-08-31 13:46:00,
2013-08-31 09:48:00,72.4,69.3,29.03,NW,316,6.0,8.0,90,0.00,,,0.00,WUHU216DAVISVP2,2013-08-31 13:48:00,
2013-08-31 09:49:00,72.4,69.3,29.04,NNW,342,6.0,8.0,90,0.00,,,0.00,WUHU216DAVISVP2,2013-08-31 13:49:00,
2013-08-31 09:51:00,72.5,69.4,29.04,NNW,334,4.0,8.0,90,0.00,,,0.00,WUHU216DAVISVP2,2013-08-31 13:51:00,
2013-08-31 09:53:00,72.6,69.5,29.03,NNW,332,4.0,8.0,90,0.00,,,0.00,WUHU216DAVISVP2,2013-08-31 13:53:00,
2013-08-31 09:54:00,72.6,69.5,29.03,NNW,332,4.0,8.0,90,0.00,,,0.00,WUHU216DAVISVP2,2013-08-31 13:54:00,
2013-08-31 09:55:00,72.6,69.5,29.03,NNW,332,4.0,8.0,90,0.00,,,0.00,WUHU216DAVISVP2,2013-08-31 13:55:00,
2013-08-31 09:56:00,72.7,69.6,29.03,NNW,332,4.0,8.0,90,0.00,,,0.00,WUHU216DAVISVP2,2013-08-31 13:56:00,
2013-08-31 09:59:00,72.8,69.7,29.04,NNW,332,6.0,8.0,90,0.00,,,0.00,WUHU216DAVISVP2,2013-08-31 13:59:00,
2013-08-31 10:00:00,72.8,69.7,29.04,NNW,332,4.0,7.0,90,0.00,,,0.00,WUHU216DAVISVP2,2013-08-31 14:00:00,
2013-08-31 10:01:00,72.8,69.7,29.04,NNW,332,2.0,7.0,90,0.00,,,0.00,WUHU216DAVISVP2,2013-08-31 14:01:00,
2013-08-31 10:04:00,73.0,69.9,29.04,NW,318,0.0,7.0,90,0.00,,,0.00,WUHU216DAVISVP2,2013-08-31 14:04:00,
2013-08-31 10:05:00,73.1,70.0,29.04,NW,318,1.0,7.0,90,0.00,,,0.00,WUHU216DAVISVP2,2013-08-31 14:05:00,
2013-08-31 10:06:00,73.4,70.3,29.04,NW,312,5.0,7.0,90,0.00,,,0.00,WUHU216DAVISVP2,2013-08-31 14:06:00,
2013-08-31 10:09:00,73.7,70.3,29.04,NW,312,0.0,6.0,89,0.00,,,0.00,WUHU216DAVISVP2,2013-08-31 14:09:00,
2013-08-31 10:10:00,73.8,70.3,29.04,NW,310,5.0,6.0,89,0.00,,,0.00,WUHU216DAVISVP2,2013-08-31 14:10:00,
2013-08-31 10:11:00,73.9,70.4,29.04,NW,310,4.0,6.0,89,0.00,,,0.00,WUHU216DAVISVP2,2013-08-31 14:11:00,
2013-08-31 10:14:00,74.0,70.2,29.04,NW,311,5.0,6.0,88,0.00,,,0.00,WUHU216DAVISVP2,2013-08-31 14:14:00,
2013-08-31 10:15:00,74.0,70.5,29.04,NW,311,5.0,6.0,89,0.00,,,0.00,WUHU216DAVISVP2,2013-08-31 14:15:00,
2013-08-31 10:16:00,74.0,70.2,29.05,NW,311,5.0,6.0,88,0.00,,,0.00,WUHU216DAVISVP2,2013-08-31 14:16:00,
2013-08-31 10:17:00,73.9,70.1,29.05,NW,311,4.0,6.0,88,0.00,,,0.00,WUHU216DAVISVP2,2013-08-31 14:17:00,
2013-08-31 10:19:00,73.9,70.1,29.05,NW,311,1.0,6.0,88,0.00,,,0.00,WUHU216DAVISVP2,2013-08-31 14:19:00,
2013-08-31 10:20:00,73.9,70.1,29.05,NW,311,0.0,6.0,88,0.00,,,0.00,WUHU216DAVISVP2,2013-08-31 14:20:00,
2013-08-31 10:21:00,74.0,70.2,29.05,NW,311,1.0,6.0,88,0.00,,,0.00,WUHU216DAVISVP2,2013-08-31 14:21:00,
2013-08-31 10:23:00,74.1,70.3,29.05,NW,311,1.0,6.0,88,0.00,,,0.00,WUHU216DAVISVP2,2013-08-31 14:23:00,
2013-08-31 10:24:00,74.2,70.4,29.04,NW,311,4.0,6.0,88,0.00,,,0.00,WUHU216DAVISVP2,2013-08-31 14:24:00,
2013-08-31 10:25:00,74.2,70.4,29.04,NW,311,4.0,6.0,88,0.00,,,0.00,WUHU216DAVISVP2,2013-08-31 14:25:00,
2013-08-31 10:27:00,74.3,70.5,29.04,NW,311,2.0,6.0,88,0.00,,,0.00,WUHU216DAVISVP2,2013-08-31 14:27:00,
2013-08-31 10:28:00,74.3,70.5,29.04,NW,311,1.0,6.0,88,0.00,,,0.00,WUHU216DAVISVP2,2013-08-31 14:28:00,
2013-08-31 10:29:00,74.4,70.6,29.04,NW,311,0.0,6.0,88,0.00,,,0.00,WUHU216DAVISVP2,2013-08-31 14:29:00,
2013-08-31 10:30:00,74.4,70.6,29.04,NW,311,0.0,6.0,88,0.00,,,0.00,WUHU216DAVISVP2,2013-08-31 14:30:00,
2013-08-31 10:32:00,74.5,70.7,29.04,NW,311,0.0,6.0,88,0.00,,,0.00,WUHU216DAVISVP2,2013-08-31 14:32:00,
2013-08-31 10:33:00,74.6,70.8,29.03,NW,311,1.0,6.0,88,0.00,,,0.00,WUHU216DAVISVP2,2013-08-31 14:33:00,
2013-08-31 10:34:00,74.7,70.9,29.03,NW,311,0.0,6.0,88,0.00,,,0.00,WUHU216DAVISVP2,2013-08-31 14:34:00,
2013-08-31 10:35:00,74.8,71.0,29.04,NW,311,0.0,6.0,88,0.00,,,0.00,WUHU216DAVISVP2,2013-08-31 14:35:00,
2013-08-31 10:37:00,75.1,71.3,29.04,NW,311,0.0,5.0,88,0.00,,,0.00,WUHU216DAVISVP2,2013-08-31 14:37:00,
2013-08-31 10:38:00,75.3,71.2,29.04,NW,311,0.0,5.0,87,0.00,,,0.00,WUHU216DAVISVP2,2013-08-31 14:38:00,
2013-08-31 10:39:00,75.3,71.2,29.04,NW,311,0.0,5.0,87,0.00,,,0.00,WUHU216DAVISVP2,2013-08-31 14:39:00,
2013-08-31 10:40:00,75.5,71.4,29.03,NW,311,0.0,5.0,87,0.00,,,0.00,WUHU216DAVISVP2,2013-08-31 14:40:00,
2013-08-31 10:42:00,75.8,71.7,29.03,NW,311,1.0,5.0,87,0.00,,,0.00,WUHU216DAVISVP2,2013-08-31 14:42:00,
2013-08-31 10:44:00,75.9,71.4,29.03,NW,311,2.0,5.0,86,0.00,,,0.00,WUHU216DAVISVP2,2013-08-31 14:44:00,
2013-08-31 10:45:00,76.0,71.2,29.03,NW,311,1.0,4.0,85,0.00,,,0.00,WUHU216DAVISVP2,2013-08-31 14:45:00,
2013-08-31 10:47:00,76.2,71.4,29.04,NW,311,1.0,4.0,85,0.00,,,0.00,WUHU216DAVISVP2,2013-08-31 14:47:00,
2013-08-31 10:49:00,76.4,71.6,29.03,NW,311,4.0,4.0,85,0.00,,,0.00,WUHU216DAVISVP2,2013-08-31 14:49:00,
2013-08-31 10:50:00,76.5,71.7,29.03,NW,311,4.0,4.0,85,0.00,,,0.00,WUHU216DAVISVP2,2013-08-31 14:50:00,
2013-08-31 10:51:00,76.5,71.7,29.03,NW,311,3.0,4.0,85,0.00,,,0.00,WUHU216DAVISVP2,2013-08-31 14:51:00,
2013-08-31 10:53:00,76.7,71.5,29.03,NW,311,2.0,4.0,84,0.00,,,0.00,WUHU216DAVISVP2,2013-08-31 14:53:00,
2013-08-31 10:54:00,76.8,71.6,29.03,NW,311,2.0,4.0,84,0.00,,,0.00,WUHU216DAVISVP2,2013-08-31 14:54:00,
2013-08-31 10:55:00,76.9,71.7,29.03,NW,311,0.0,4.0,84,0.00,,,0.00,WUHU216DAVISVP2,2013-08-31 14:55:00,
2013-08-31 10:56:00,76.9,71.7,29.03,NW,311,0.0,4.0,84,0.00,,,0.00,WUHU216DAVISVP2,2013-08-31 14:56:00,
2013-08-31 10:58:00,77.0,71.8,29.03,NW,311,0.0,4.0,84,0.00,,,0.00,WUHU216DAVISVP2,2013-08-31 14:58:00,
2013-08-31 10:59:00,77.1,71.9,29.03,NW,311,1.0,4.0,84,0.00,,,0.00,WUHU216DAVISVP2,2013-08-31 14:59:00,
2013-08-31 11:01:00,77.1,71.6,29.03,NW,311,1.0,4.0,83,0.00,,,0.00,WUHU216DAVISVP2,2013-08-31 15:01:00,
2013-08-31 11:02:00,77.1,71.9,29.03,NW,311,1.0,4.0,84,0.00,,,0.00,WUHU216DAVISVP2,2013-08-31 15:02:00,
2013-08-31 11:03:00,77.2,71.7,29.03,NW,311,0.0,4.0,83,0.00,,,0.00,WUHU216DAVISVP2,2013-08-31 15:03:00,
2013-08-31 11:05:00,77.3,71.8,29.03,NW,311,2.0,4.0,83,0.00,,,0.00,WUHU216DAVISVP2,2013-08-31 15:05:00,
2013-08-31 11:06:00,77.4,71.9,29.03,NW,311,0.0,4.0,83,0.00,,,0.00,WUHU216DAVISVP2,2013-08-31 15:06:00,
2013-08-31 11:08:00,77.5,72.0,29.03,NW,311,2.0,4.0,83,0.00,,,0.00,WUHU216DAVISVP2,2013-08-31 15:08:00,
2013-08-31 11:09:00,77.6,72.1,29.03,NW,311,1.0,4.0,83,0.00,,,0.00,WUHU216DAVISVP2,2013-08-31 15:09:00,
2013-08-31 11:10:00,77.6,72.0,29.03,NW,311,1.0,4.0,83,0.00,,,0.00,WUHU216DAVISVP2,2013-08-31 15:10:00,
2013-08-31 11:11:00,77.7,72.1,29.03,NW,311,1.0,4.0,83,0.00,,,0.00,WUHU216DAVISVP2,2013-08-31 15:11:00,
2013-08-31 11:13:00,77.8,72.3,29.02,NW,311,0.0,4.0,83,0.00,,,0.00,WUHU216DAVISVP2,2013-08-31 15:13:00,
2013-08-31 11:15:00,77.9,72.4,29.02,NW,311,0.0,4.0,83,0.00,,,0.00,WUHU216DAVISVP2,2013-08-31 15:15:00,
2013-08-31 11:16:00,78.0,72.5,29.02,NW,311,0.0,4.0,83,0.00,,,0.00,WUHU216DAVISVP2,2013-08-31 15:16:00,
2013-08-31 11:17:00,78.0,72.1,29.02,NW,311,1.0,4.0,82,0.00,,,0.00,WUHU216DAVISVP2,2013-08-31 15:17:00,
2013-08-31 11:18:00,78.1,72.2,29.02,SE,128,3.0,4.0,82,0.00,,,0.00,WUHU216DAVISVP2,2013-08-31 15:18:00,
2013-08-31 11:19:00,78.2,72.3,29.02,SE,125,0.0,4.0,82,0.00,,,0.00,WUHU216DAVISVP2,2013-08-31 15:19:00,
2013-08-31 11:20:00,78.2,72.3,29.02,SE,125,1.0,4.0,82,0.00,,,0.00,WUHU216DAVISVP2,2013-08-31 15:20:00,
2013-08-31 11:21:00,78.2,72.3,29.02,SE,132,1.0,4.0,82,0.00,,,0.00,WUHU216DAVISVP2,2013-08-31 15:21:00,
2013-08-31 11:22:00,78.2,72.3,29.02,SE,130,1.0,4.0,82,0.00,,,0.00,WUHU216DAVISVP2,2013-08-31 15:22:00,
2013-08-31 11:23:00,78.2,72.3,29.03,SE,130,1.0,4.0,82,0.00,,,0.00,WUHU216DAVISVP2,2013-08-31 15:23:00,
2013-08-31 11:25:00,78.2,72.3,29.03,SE,130,0.0,4.0,82,0.00,,,0.00,WUHU216DAVISVP2,2013-08-31 15:25:00,
2013-08-31 11:26:00,78.2,72.3,29.03,SE,131,2.0,4.0,82,0.00,,,0.00,WUHU216DAVISVP2,2013-08-31 15:26:00,
2013-08-31 11:27:00,78.3,72.4,29.03,SE,131,0.0,4.0,82,0.00,,,0.00,WUHU216DAVISVP2,2013-08-31 15:27:00,
2013-08-31 11:29:00,78.3,72.4,29.03,SE,130,0.0,4.0,82,0.00,,,0.00,WUHU216DAVISVP2,2013-08-31 15:29:00,
2013-08-31 11:30:00,78.4,72.5,29.03,SE,131,0.0,4.0,82,0.00,,,0.00,WUHU216DAVISVP2,2013-08-31 15:30:00,
2013-08-31 11:31:00,78.5,73.0,29.03,SE,131,0.0,4.0,83,0.00,,,0.00,WUHU216DAVISVP2,2013-08-31 15:31:00,
2013-08-31 11:32:00,78.5,72.6,29.03,SSE,168,0.0,4.0,82,0.00,,,0.00,WUHU216DAVISVP2,2013-08-31 15:32:00,
2013-08-31 11:34:00,78.6,72.7,29.03,SSE,168,0.0,4.0,82,0.00,,,0.00,WUHU216DAVISVP2,2013-08-31 15:34:00,
2013-08-31 11:35:00,78.6,72.7,29.03,East,97,3.0,6.0,82,0.00,,,0.00,WUHU216DAVISVP2,2013-08-31 15:35:00,
2013-08-31 11:36:00,78.7,72.8,29.03,East,97,0.0,6.0,82,0.00,,,0.00,WUHU216DAVISVP2,2013-08-31 15:36:00,
2013-08-31 11:37:00,78.7,72.8,29.03,East,97,1.0,6.0,82,0.00,,,0.00,WUHU216DAVISVP2,2013-08-31 15:37:00,
2013-08-31 11:39:00,79.0,73.1,29.02,East,97,0.0,6.0,82,0.00,,,0.00,WUHU216DAVISVP2,2013-08-31 15:39:00,
2013-08-31 11:40:00,79.0,73.1,29.02,East,97,0.0,6.0,82,0.00,,,0.00,WUHU216DAVISVP2,2013-08-31 15:40:00,
2013-08-31 11:41:00,79.1,72.9,29.02,East,97,1.0,6.0,81,0.00,,,0.00,WUHU216DAVISVP2,2013-08-31 15:41:00,
2013-08-31 11:42:00,79.3,73.1,29.02,East,95,5.0,6.0,81,0.00,,,0.00,WUHU216DAVISVP2,2013-08-31 15:42:00,
2013-08-31 11:44:00,79.4,72.8,29.02,East,95,4.0,6.0,80,0.00,,,0.00,WUHU216DAVISVP2,2013-08-31 15:44:00,
2013-08-31 11:45:00,79.4,72.8,29.02,East,95,1.0,6.0,80,0.00,,,0.00,WUHU216DAVISVP2,2013-08-31 15:45:00,
2013-08-31 11:46:00,79.5,72.9,29.02,East,95,1.0,6.0,80,0.00,,,0.00,WUHU216DAVISVP2,2013-08-31 15:46:00,
2013-08-31 11:48:00,79.5,72.9,29.02,East,95,0.0,6.0,80,0.00,,,0.00,WUHU216DAVISVP2,2013-08-31 15:48:00,
2013-08-31 11:50:00,79.5,72.9,29.03,East,96,0.0,6.0,80,0.00,,,0.00,WUHU216DAVISVP2,2013-08-31 15:50:00,
2013-08-31 11:51:00,79.6,73.4,29.03,East,95,0.0,6.0,81,0.00,,,0.00,WUHU216DAVISVP2,2013-08-31 15:51:00,
2013-08-31 11:52:00,79.7,73.1,29.03,East,96,1.0,6.0,80,0.00,,,0.00,WUHU216DAVISVP2,2013-08-31 15:52:00,
2013-08-31 11:53:00,79.7,73.1,29.03,SSW,194,1.0,6.0,80,0.00,,,0.00,WUHU216DAVISVP2,2013-08-31 15:53:00,
2013-08-31 11:55:00,79.6,73.4,29.02,SE,133,0.0,6.0,81,0.00,,,0.00,WUHU216DAVISVP2,2013-08-31 15:55:00,
2013-08-31 11:56:00,79.6,73.4,29.02,SE,133,0.0,6.0,81,0.00,,,0.00,WUHU216DAVISVP2,2013-08-31 15:56:00,
2013-08-31 11:57:00,79.7,73.1,29.03,SE,133,0.0,6.0,80,0.00,,,0.00,WUHU216DAVISVP2,2013-08-31 15:57:00,
2013-08-31 11:58:00,79.7,73.1,29.02,SE,133,0.0,6.0,80,0.00,,,0.00,WUHU216DAVISVP2,2013-08-31 15:58:00,
2013-08-31 12:01:00,79.8,72.8,29.03,SE,133,0.0,6.0,79,0.00,,,0.00,WUHU216DAVISVP2,2013-08-31 16:01:00,
2013-08-31 12:02:00,79.8,72.8,29.03,SE,133,1.0,5.0,79,0.00,,,0.00,WUHU216DAVISVP2,2013-08-31 16:02:00,
2013-08-31 12:04:00,79.9,72.9,29.03,SE,133,0.0,4.0,79,0.00,,,0.00,WUHU216DAVISVP2,2013-08-31 16:04:00,
2013-08-31 12:06:00,80.0,73.4,29.03,SE,133,0.0,4.0,80,0.00,,,0.00,WUHU216DAVISVP2,2013-08-31 16:06:00,
2013-08-31 12:07:00,80.1,73.5,29.03,SE,133,0.0,4.0,80,0.00,,,0.00,WUHU216DAVISVP2,2013-08-31 16:07:00,
2013-08-31 12:09:00,80.2,73.2,29.03,SE,133,0.0,4.0,79,0.00,,,0.00,WUHU216DAVISVP2,2013-08-31 16:09:00,
2013-08-31 12:11:00,80.3,73.3,29.03,SE,133,0.0,4.0,79,0.00,,,0.00,WUHU216DAVISVP2,2013-08-31 16:11:00,
2013-08-31 12:12:00,80.4,73.4,29.03,SE,133,0.0,4.0,79,0.00,,,0.00,WUHU216DAVISVP2,2013-08-31 16:12:00,
2013-08-31 12:14:00,80.5,73.5,29.03,NE,45,1.0,7.0,79,0.00,,,0.00,WUHU216DAVISVP2,2013-08-31 16:14:00,
2013-08-31 12:16:00,80.5,73.1,29.03,NNE,22,3.0,7.0,78,0.00,,,0.00,WUHU216DAVISVP2,2013-08-31 16:16:00,
2013-08-31 12:17:00,80.5,73.1,29.03,NNW,345,1.0,7.0,78,0.00,,,0.00,WUHU216DAVISVP2,2013-08-31 16:17:00,
2013-08-31 12:18:00,80.4,73.1,29.03,NNW,328,5.0,7.0,78,0.00,,,0.00,WUHU216DAVISVP2,2013-08-31 16:18:00,
2013-08-31 12:19:00,80.2,72.9,29.03,NW,321,5.0,7.0,78,0.00,,,0.00,WUHU216DAVISVP2,2013-08-31 16:19:00,
2013-08-31 12:21:00,79.9,72.9,29.04,North,349,2.0,7.0,79,0.00,,,0.00,WUHU216DAVISVP2,2013-08-31 16:21:00,
2013-08-31 12:22:00,79.7,72.7,29.04,North,354,4.0,7.0,79,0.00,,,0.00,WUHU216DAVISVP2,2013-08-31 16:22:00,
2013-08-31 12:23:00,79.6,73.0,29.04,NNW,347,6.0,7.0,80,0.00,,,0.00,WUHU216DAVISVP2,2013-08-31 16:23:00,
2013-08-31 12:24:00,79.6,73.0,29.04,NNW,343,7.0,8.0,80,0.00,,,0.00,WUHU216DAVISVP2,2013-08-31 16:24:00,
2013-08-31 12:26:00,79.2,72.6,29.05,North,349,5.0,9.0,80,0.00,,,0.00,WUHU216DAVISVP2,2013-08-31 16:26:00,
2013-08-31 12:27:00,79.2,72.6,29.05,NNW,341,7.0,9.0,80,0.00,,,0.00,WUHU216DAVISVP2,2013-08-31 16:27:00,
2013-08-31 12:28:00,78.9,72.7,29.05,NNW,343,8.0,11.0,81,0.00,,,0.00,WUHU216DAVISVP2,2013-08-31 16:28:00,
2013-08-31 12:30:00,78.7,72.8,29.05,North,349,9.0,11.0,82,0.00,,,0.00,WUHU216DAVISVP2,2013-08-31 16:30:00,
2013-08-31 12:32:00,78.4,72.9,29.05,NNW,330,6.0,11.0,83,0.00,,,0.00,WUHU216DAVISVP2,2013-08-31 16:32:00,
2013-08-31 12:34:00,78.3,72.8,29.05,NW,326,7.0,11.0,83,0.00,,,0.00,WUHU216DAVISVP2,2013-08-31 16:34:00,
2013-08-31 12:35:00,78.2,73.0,29.05,NNW,347,6.0,11.0,84,0.00,,,0.00,WUHU216DAVISVP2,2013-08-31 16:35:00,
2013-08-31 12:37:00,78.0,72.8,29.05,NNW,339,5.0,11.0,84,0.00,,,0.00,WUHU216DAVISVP2,2013-08-31 16:37:00,
2013-08-31 12:38:00,78.0,72.8,29.05,NNW,337,5.0,11.0,84,0.00,,,0.00,WUHU216DAVISVP2,2013-08-31 16:38:00,
2013-08-31 12:39:00,78.0,72.8,29.05,North,354,6.0,11.0,84,0.00,,,0.00,WUHU216DAVISVP2,2013-08-31 16:39:00,
2013-08-31 12:40:00,77.9,72.7,29.05,North,354,4.0,11.0,84,0.00,,,0.00,WUHU216DAVISVP2,2013-08-31 16:40:00,
2013-08-31 12:41:00,77.9,73.1,29.05,North,354,2.0,11.0,85,0.00,,,0.00,WUHU216DAVISVP2,2013-08-31 16:41:00,
2013-08-31 12:42:00,77.9,73.1,29.05,North,354,4.0,11.0,85,0.00,,,0.00,WUHU216DAVISVP2,2013-08-31 16:42:00,
2013-08-31 12:44:00,77.9,73.4,29.05,North,354,2.0,11.0,86,0.00,,,0.00,WUHU216DAVISVP2,2013-08-31 16:44:00,
2013-08-31 12:46:00,77.8,73.3,29.04,SSE,152,7.0,11.0,86,0.00,,,0.00,WUHU216DAVISVP2,2013-08-31 16:46:00,
2013-08-31 12:47:00,77.5,73.0,29.03,SSE,158,6.0,11.0,86,0.00,,,0.00,WUHU216DAVISVP2,2013-08-31 16:47:00,
2013-08-31 12:48:00,77.4,72.9,29.03,SE,131,4.0,11.0,86,0.00,,,0.00,WUHU216DAVISVP2,2013-08-31 16:48:00,
2013-08-31 12:49:00,77.2,73.0,29.04,SW,228,2.0,10.0,87,0.00,,,0.00,WUHU216DAVISVP2,2013-08-31 16:49:00,
2013-08-31 12:50:00,77.1,73.0,29.04,WSW,251,4.0,10.0,87,0.00,,,0.00,WUHU216DAVISVP2,2013-08-31 16:50:00,
2013-08-31 12:51:00,76.9,73.1,29.04,NW,305,3.0,10.0,88,0.00,,,0.00,WUHU216DAVISVP2,2013-08-31 16:51:00,
2013-08-31 12:52:00,76.6,72.8,29.04,NNW,345,7.0,9.0,88,0.00,,,0.00,WUHU216DAVISVP2,2013-08-31 16:52:00,
2013-08-31 12:53:00,76.4,72.6,29.04,North,11,7.0,9.0,88,0.00,,,0.00,WUHU216DAVISVP2,2013-08-31 16:53:00,
2013-08-31 12:55:00,76.2,72.4,29.04,North,11,0.0,8.0,88,0.00,,,0.00,WUHU216DAVISVP2,2013-08-31 16:55:00,
2013-08-31 12:56:00,76.2,72.4,29.03,SSE,162,5.0,7.0,88,0.01,,,0.01,WUHU216DAVISVP2,2013-08-31 16:56:00,
2013-08-31 12:57:00,76.1,72.3,29.02,SSE,162,1.0,7.0,88,0.01,,,0.01,WUHU216DAVISVP2,2013-08-31 16:57:00,
2013-08-31 12:59:00,76.0,72.5,29.02,SSE,162,0.0,7.0,89,0.01,,,0.01,WUHU216DAVISVP2,2013-08-31 16:59:00,
2013-08-31 13:00:00,76.0,72.5,29.02,ESE,116,4.0,7.0,89,0.01,,,0.01,WUHU216DAVISVP2,2013-08-31 17:00:00,
2013-08-31 13:01:00,75.9,72.4,29.02,ESE,116,2.0,7.0,89,0.01,,,0.01,WUHU216DAVISVP2,2013-08-31 17:01:00,
2013-08-31 13:02:00,75.9,72.4,29.02,ESE,115,2.0,7.0,89,0.01,,,0.01,WUHU216DAVISVP2,2013-08-31 17:02:00,
2013-08-31 13:03:00,75.8,72.3,29.01,ESE,102,4.0,7.0,89,0.01,,,0.01,WUHU216DAVISVP2,2013-08-31 17:03:00,
2013-08-31 13:04:00,75.8,72.3,29.01,ESE,104,4.0,7.0,89,0.01,,,0.01,WUHU216DAVISVP2,2013-08-31 17:04:00,
2013-08-31 13:05:00,75.7,72.5,29.01,ESE,117,5.0,7.0,90,0.01,,,0.01,WUHU216DAVISVP2,2013-08-31 17:05:00,
2013-08-31 13:06:00,75.6,72.4,29.01,ESE,108,2.0,7.0,90,0.01,,,0.01,WUHU216DAVISVP2,2013-08-31 17:06:00,
2013-08-31 13:07:00,75.6,72.4,29.01,ESE,113,2.0,7.0,90,0.01,,,0.01,WUHU216DAVISVP2,2013-08-31 17:07:00,
2013-08-31 13:08:00,75.5,72.4,29.01,ESE,113,1.0,7.0,90,0.01,,,0.01,WUHU216DAVISVP2,2013-08-31 17:08:00,
2013-08-31 13:09:00,75.5,72.4,29.01,ESE,115,5.0,7.0,90,0.01,,,0.01,WUHU216DAVISVP2,2013-08-31 17:09:00,
2013-08-31 13:10:00,75.4,72.3,29.00,SE,124,0.0,7.0,90,0.01,,,0.01,WUHU216DAVISVP2,2013-08-31 17:10:00,
2013-08-31 13:11:00,75.4,72.6,29.01,SE,124,1.0,7.0,91,0.01,,,0.01,WUHU216DAVISVP2,2013-08-31 17:11:00,
2013-08-31 13:12:00,75.4,72.6,29.01,SW,214,2.0,7.0,91,0.01,,,0.01,WUHU216DAVISVP2,2013-08-31 17:12:00,
2013-08-31 13:13:00,75.3,72.5,29.01,SW,214,0.0,7.0,91,0.01,,,0.01,WUHU216DAVISVP2,2013-08-31 17:13:00,
2013-08-31 13:14:00,75.3,72.5,29.01,SW,224,4.0,7.0,91,0.01,,,0.01,WUHU216DAVISVP2,2013-08-31 17:14:00,
2013-08-31 13:16:00,75.1,72.3,29.01,SSW,199,0.0,7.0,91,0.01,,,0.01,WUHU216DAVISVP2,2013-08-31 17:16:00,
2013-08-31 13:17:00,75.1,72.3,29.01,South,172,0.0,7.0,91,0.01,,,0.01,WUHU216DAVISVP2,2013-08-31 17:17:00,
2013-08-31 13:18:00,75.0,72.5,29.01,South,172,1.0,7.0,92,0.01,,,0.01,WUHU216DAVISVP2,2013-08-31 17:18:00,
2013-08-31 13:20:00,74.9,72.4,29.01,South,172,1.0,7.0,92,0.01,,,0.01,WUHU216DAVISVP2,2013-08-31 17:20:00,
2013-08-31 13:21:00,74.8,72.3,29.01,South,172,2.0,7.0,92,0.01,,,0.01,WUHU216DAVISVP2,2013-08-31 17:21:00,
2013-08-31 13:23:00,74.8,72.3,29.01,South,172,1.0,7.0,92,0.01,,,0.01,WUHU216DAVISVP2,2013-08-31 17:23:00,
2013-08-31 13:25:00,74.7,72.2,29.01,South,172,0.0,6.0,92,0.01,,,0.01,WUHU216DAVISVP2,2013-08-31 17:25:00,
2013-08-31 13:26:00,74.8,72.3,29.01,South,172,0.0,6.0,92,0.01,,,0.01,WUHU216DAVISVP2,2013-08-31 17:26:00,
2013-08-31 13:28:00,74.8,72.3,29.02,South,172,0.0,6.0,92,0.01,,,0.01,WUHU216DAVISVP2,2013-08-31 17:28:00,
2013-08-31 13:31:00,74.7,72.2,29.02,South,172,2.0,6.0,92,0.01,,,0.01,WUHU216DAVISVP2,2013-08-31 17:31:00,
2013-08-31 13:33:00,74.7,71.9,29.02,WSW,252,6.0,6.0,91,0.01,,,0.01,WUHU216DAVISVP2,2013-08-31 17:33:00,
2013-08-31 13:34:00,74.6,71.8,29.02,WSW,252,2.0,6.0,91,0.01,,,0.01,WUHU216DAVISVP2,2013-08-31 17:34:00,
2013-08-31 13:35:00,74.6,71.8,29.02,WSW,252,4.0,6.0,91,0.01,,,0.01,WUHU216DAVISVP2,2013-08-31 17:35:00,
2013-08-31 13:36:00,74.6,71.8,29.02,WSW,252,1.0,6.0,91,0.01,,,0.01,WUHU216DAVISVP2,2013-08-31 17:36:00,
2013-08-31 13:38:00,74.7,71.9,29.02,WSW,252,2.0,6.0,91,0.01,,,0.01,WUHU216DAVISVP2,2013-08-31 17:38:00,
2013-08-31 13:39:00,74.7,71.9,29.02,WSW,252,0.0,6.0,91,0.01,,,0.01,WUHU216DAVISVP2,2013-08-31 17:39:00,
2013-08-31 13:40:00,74.7,71.9,29.02,NNW,337,1.0,6.0,91,0.01,,,0.01,WUHU216DAVISVP2,2013-08-31 17:40:00,
2013-08-31 13:41:00,74.8,71.7,29.02,NNW,337,2.0,6.0,90,0.01,,,0.01,WUHU216DAVISVP2,2013-08-31 17:41:00,
2013-08-31 13:44:00,75.1,72.0,29.03,NNW,337,4.0,6.0,90,0.01,,,0.01,WUHU216DAVISVP2,2013-08-31 17:44:00,
2013-08-31 13:45:00,75.2,72.1,29.03,NNW,337,4.0,6.0,90,0.01,,,0.01,WUHU216DAVISVP2,2013-08-31 17:45:00,
2013-08-31 13:47:00,75.2,71.7,29.03,NNW,337,4.0,6.0,89,0.01,,,0.01,WUHU216DAVISVP2,2013-08-31 17:47:00,
2013-08-31 13:49:00,75.6,72.4,29.03,NW,316,3.0,6.0,90,0.01,,,0.01,WUHU216DAVISVP2,2013-08-31 17:49:00,
2013-08-31 13:50:00,75.7,72.5,29.03,NW,316,2.0,6.0,90,0.01,,,0.01,WUHU216DAVISVP2,2013-08-31 17:50:00,
2013-08-31 13:53:00,75.8,72.6,29.03,NW,316,4.0,5.0,90,0.01,,,0.01,WUHU216DAVISVP2,2013-08-31 17:53:00,
2013-08-31 13:54:00,75.9,72.7,29.04,WNW,285,3.0,6.0,90,0.01,,,0.01,WUHU216DAVISVP2,2013-08-31 17:54:00,
2013-08-31 13:55:00,75.9,72.7,29.03,WNW,285,3.0,6.0,90,0.01,,,0.01,WUHU216DAVISVP2,2013-08-31 17:55:00,
2013-08-31 13:58:00,75.9,72.7,29.03,WNW,285,5.0,6.0,90,0.00,,,0.01,WUHU216DAVISVP2,2013-08-31 17:58:00,
2013-08-31 13:59:00,75.9,72.7,29.04,WNW,285,4.0,6.0,90,0.00,,,0.01,WUHU216DAVISVP2,2013-08-31 17:59:00,
2013-08-31 14:00:00,75.9,72.7,29.04,WNW,285,1.0,6.0,90,0.00,,,0.01,WUHU216DAVISVP2,2013-08-31 18:00:00,
2013-08-31 14:01:00,75.9,72.7,29.04,WNW,285,1.0,6.0,90,0.00,,,0.01,WUHU216DAVISVP2,2013-08-31 18:01:00,
2013-08-31 14:03:00,76.0,72.8,29.04,WNW,285,5.0,6.0,90,0.00,,,0.01,WUHU216DAVISVP2,2013-08-31 18:03:00,
2013-08-31 14:04:00,75.9,72.7,29.04,WNW,285,5.0,6.0,90,0.00,,,0.01,WUHU216DAVISVP2,2013-08-31 18:04:00,
2013-08-31 14:05:00,75.9,72.7,29.05,WNW,285,2.0,6.0,90,0.00,,,0.01,WUHU216DAVISVP2,2013-08-31 18:05:00,
2013-08-31 14:06:00,75.9,72.4,29.05,WNW,285,6.0,6.0,89,0.00,,,0.01,WUHU216DAVISVP2,2013-08-31 18:06:00,
2013-08-31 14:08:00,75.9,72.7,29.04,WNW,285,3.0,7.0,90,0.00,,,0.01,WUHU216DAVISVP2,2013-08-31 18:08:00,
2013-08-31 14:09:00,75.9,72.7,29.04,WNW,285,1.0,7.0,90,0.00,,,0.01,WUHU216DAVISVP2,2013-08-31 18:09:00,
2013-08-31 14:10:00,75.9,72.7,29.04,WNW,285,0.0,7.0,90,0.00,,,0.01,WUHU216DAVISVP2,2013-08-31 18:10:00,
2013-08-31 14:11:00,75.8,72.6,29.04,WNW,285,0.0,7.0,90,0.00,,,0.01,WUHU216DAVISVP2,2013-08-31 18:11:00,
2013-08-31 14:12:00,75.8,72.6,29.04,WNW,285,0.0,7.0,90,0.00,,,0.01,WUHU216DAVISVP2,2013-08-31 18:12:00,
2013-08-31 14:13:00,75.8,73.0,29.04,WNW,285,0.0,7.0,91,0.00,,,0.01,WUHU216DAVISVP2,2013-08-31 18:13:00,
2013-08-31 14:14:00,75.8,73.0,29.04,WNW,285,0.0,7.0,91,0.00,,,0.01,WUHU216DAVISVP2,2013-08-31 18:14:00,
2013-08-31 14:15:00,75.8,73.0,29.04,WNW,285,0.0,7.0,91,0.00,,,0.01,WUHU216DAVISVP2,2013-08-31 18:15:00,
2013-08-31 14:17:00,75.8,73.0,29.04,WNW,285,0.0,7.0,91,0.00,,,0.01,WUHU216DAVISVP2,2013-08-31 18:17:00,
2013-08-31 14:18:00,75.7,72.9,29.04,WNW,285,2.0,7.0,91,0.00,,,0.01,WUHU216DAVISVP2,2013-08-31 18:18:00,
2013-08-31 14:20:00,75.6,72.4,29.03,SSE,162,5.0,7.0,90,0.00,,,0.01,WUHU216DAVISVP2,2013-08-31 18:20:00,
2013-08-31 14:22:00,75.3,72.2,29.04,South,171,0.0,7.0,90,0.00,,,0.01,WUHU216DAVISVP2,2013-08-31 18:22:00,
2013-08-31 14:23:00,75.3,72.2,29.04,South,186,1.0,7.0,90,0.00,,,0.01,WUHU216DAVISVP2,2013-08-31 18:23:00,
2013-08-31 14:25:00,75.2,72.1,29.03,South,186,0.0,7.0,90,0.00,,,0.01,WUHU216DAVISVP2,2013-08-31 18:25:00,
2013-08-31 14:26:00,75.1,72.3,29.03,SSE,168,3.0,7.0,91,0.00,,,0.01,WUHU216DAVISVP2,2013-08-31 18:26:00,
2013-08-31 14:28:00,75.1,72.3,29.03,SSE,168,5.0,7.0,91,0.00,,,0.01,WUHU216DAVISVP2,2013-08-31 18:28:00,
2013-08-31 14:29:00,75.1,72.3,29.03,SSE,168,5.0,7.0,91,0.00,,,0.01,WUHU216DAVISVP2,2013-08-31 18:29:00,
2013-08-31 14:30:00,75.1,72.3,29.03,SSE,158,0.0,7.0,91,0.00,,,0.01,WUHU216DAVISVP2,2013-08-31 18:30:00,
2013-08-31 14:32:00,75.0,72.2,29.03,SSE,156,2.0,7.0,91,0.00,,,0.01,WUHU216DAVISVP2,2013-08-31 18:32:00,
2013-08-31 14:33:00,75.0,72.2,29.03,SSE,164,2.0,7.0,91,0.00,,,0.01,WUHU216DAVISVP2,2013-08-31 18:33:00,
2013-08-31 14:34:00,74.9,72.1,29.03,SSE,164,0.0,7.0,91,0.00,,,0.01,WUHU216DAVISVP2,2013-08-31 18:34:00,
2013-08-31 14:35:00,75.0,72.2,29.03,SSE,164,0.0,7.0,91,0.00,,,0.01,WUHU216DAVISVP2,2013-08-31 18:35:00,
2013-08-31 14:39:00,75.0,72.5,29.03,SSE,164,1.0,7.0,92,0.00,,,0.01,WUHU216DAVISVP2,2013-08-31 18:39:00,
2013-08-31 14:40:00,75.1,72.6,29.03,SSE,164,0.0,6.0,92,0.00,,,0.01,WUHU216DAVISVP2,2013-08-31 18:40:00,
2013-08-31 14:44:00,75.3,72.8,29.03,SSE,164,0.0,6.0,92,0.00,,,0.01,WUHU216DAVISVP2,2013-08-31 18:44:00,
2013-08-31 14:45:00,75.5,73.3,29.03,SSE,164,0.0,6.0,93,0.00,,,0.01,WUHU216DAVISVP2,2013-08-31 18:45:00,
2013-08-31 14:46:00,75.6,73.4,29.03,SSE,164,0.0,6.0,93,0.00,,,0.01,WUHU216DAVISVP2,2013-08-31 18:46:00,
2013-08-31 14:49:00,75.9,73.7,29.03,SSE,164,0.0,5.0,93,0.00,,,0.01,WUHU216DAVISVP2,2013-08-31 18:49:00,
2013-08-31 14:50:00,76.0,73.8,29.03,SSE,164,0.0,5.0,93,0.00,,,0.01,WUHU216DAVISVP2,2013-08-31 18:50:00,
2013-08-31 14:51:00,76.0,73.8,29.03,SSE,164,1.0,4.0,93,0.00,,,0.01,WUHU216DAVISVP2,2013-08-31 18:51:00,
2013-08-31 14:54:00,76.0,73.5,29.03,East,91,2.0,4.0,92,0.00,,,0.01,WUHU216DAVISVP2,2013-08-31 18:54:00,
2013-08-31 14:55:00,76.0,73.5,29.03,East,91,0.0,4.0,92,0.00,,,0.01,WUHU216DAVISVP2,2013-08-31 18:55:00,
2013-08-31 14:56:00,76.0,73.5,29.02,East,91,0.0,4.0,92,0.00,,,0.01,WUHU216DAVISVP2,2013-08-31 18:56:00,
2013-08-31 14:59:00,76.1,73.6,29.03,East,91,0.0,4.0,92,0.00,,,0.01,WUHU216DAVISVP2,2013-08-31 18:59:00,
2013-08-31 15:00:00,76.2,73.7,29.03,East,91,0.0,4.0,92,0.00,,,0.01,WUHU216DAVISVP2,2013-08-31 19:00:00,
2013-08-31 15:01:00,76.2,73.7,29.03,East,91,0.0,4.0,92,0.00,,,0.01,WUHU216DAVISVP2,2013-08-31 19:01:00,
2013-08-31 15:04:00,76.3,73.8,29.03,East,91,0.0,4.0,92,0.01,,,0.02,WUHU216DAVISVP2,2013-08-31 19:04:00,
2013-08-31 15:05:00,76.4,73.6,29.03,East,91,1.0,4.0,91,0.01,,,0.02,WUHU216DAVISVP2,2013-08-31 19:05:00,
2013-08-31 15:06:00,76.4,73.6,29.03,East,91,1.0,4.0,91,0.01,,,0.02,WUHU216DAVISVP2,2013-08-31 19:06:00,
2013-08-31 15:07:00,76.4,73.6,29.03,East,91,1.0,4.0,91,0.01,,,0.02,WUHU216DAVISVP2,2013-08-31 19:07:00,
2013-08-31 15:09:00,76.4,73.6,29.03,East,91,0.0,4.0,91,0.01,,,0.02,WUHU216DAVISVP2,2013-08-31 19:09:00,
2013-08-31 15:10:00,76.5,73.7,29.03,East,91,0.0,4.0,91,0.01,,,0.02,WUHU216DAVISVP2,2013-08-31 19:10:00,
2013-08-31 15:12:00,76.5,73.3,29.02,East,91,1.0,4.0,90,0.01,,,0.02,WUHU216DAVISVP2,2013-08-31 19:12:00,
2013-08-31 15:13:00,76.5,73.3,29.02,East,91,1.0,4.0,90,0.01,,,0.02,WUHU216DAVISVP2,2013-08-31 19:13:00,
2013-08-31 15:14:00,76.6,73.4,29.02,East,91,3.0,4.0,90,0.01,,,0.02,WUHU216DAVISVP2,2013-08-31 19:14:00,
2013-08-31 15:15:00,76.6,73.4,29.02,East,91,1.0,4.0,90,0.01,,,0.02,WUHU216DAVISVP2,2013-08-31 19:15:00,
2013-08-31 15:17:00,76.5,73.3,29.02,East,91,0.0,4.0,90,0.01,,,0.02,WUHU216DAVISVP2,2013-08-31 19:17:00,
2013-08-31 15:18:00,76.5,73.3,29.02,East,91,0.0,4.0,90,0.01,,,0.02,WUHU216DAVISVP2,2013-08-31 19:18:00,
2013-08-31 15:19:00,76.5,73.3,29.02,East,91,0.0,4.0,90,0.01,,,0.02,WUHU216DAVISVP2,2013-08-31 19:19:00,
2013-08-31 15:20:00,76.5,73.3,29.02,East,91,0.0,4.0,90,0.01,,,0.02,WUHU216DAVISVP2,2013-08-31 19:20:00,
2013-08-31 15:22:00,76.4,73.2,29.02,East,91,1.0,4.0,90,0.01,,,0.02,WUHU216DAVISVP2,2013-08-31 19:22:00,
2013-08-31 15:23:00,76.4,73.2,29.02,East,91,0.0,4.0,90,0.01,,,0.02,WUHU216DAVISVP2,2013-08-31 19:23:00,
2013-08-31 15:24:00,76.5,73.3,29.02,East,91,0.0,4.0,90,0.01,,,0.02,WUHU216DAVISVP2,2013-08-31 19:24:00,
2013-08-31 15:25:00,76.5,73.3,29.02,East,91,0.0,4.0,90,0.01,,,0.02,WUHU216DAVISVP2,2013-08-31 19:25:00,
2013-08-31 15:27:00,76.6,73.8,29.02,East,91,0.0,4.0,91,0.01,,,0.02,WUHU216DAVISVP2,2013-08-31 19:27:00,
2013-08-31 15:28:00,76.6,73.8,29.01,East,91,0.0,4.0,91,0.01,,,0.02,WUHU216DAVISVP2,2013-08-31 19:28:00,
2013-08-31 15:29:00,76.7,73.9,29.01,East,91,0.0,4.0,91,0.01,,,0.02,WUHU216DAVISVP2,2013-08-31 19:29:00,
2013-08-31 15:30:00,76.8,74.0,29.01,East,91,1.0,4.0,91,0.01,,,0.02,WUHU216DAVISVP2,2013-08-31 19:30:00,
2013-08-31 15:32:00,76.8,74.0,29.01,SSE,160,4.0,5.0,91,0.01,,,0.02,WUHU216DAVISVP2,2013-08-31 19:32:00,
2013-08-31 15:34:00,76.8,73.6,29.01,SSE,160,4.0,6.0,90,0.01,,,0.02,WUHU216DAVISVP2,2013-08-31 19:34:00,
2013-08-31 15:35:00,76.8,73.6,29.01,South,186,2.0,6.0,90,0.01,,,0.02,WUHU216DAVISVP2,2013-08-31 19:35:00,
2013-08-31 15:38:00,76.7,73.5,29.02,SSW,206,0.0,6.0,90,0.01,,,0.02,WUHU216DAVISVP2,2013-08-31 19:38:00,
2013-08-31 15:39:00,76.7,73.5,29.01,SSW,206,0.0,6.0,90,0.01,,,0.02,WUHU216DAVISVP2,2013-08-31 19:39:00,
2013-08-31 15:40:00,76.7,73.5,29.01,SSW,206,2.0,6.0,90,0.01,,,0.02,WUHU216DAVISVP2,2013-08-31 19:40:00,
2013-08-31 15:41:00,76.6,73.4,29.01,SSW,206,0.0,6.0,90,0.01,,,0.02,WUHU216DAVISVP2,2013-08-31 19:41:00,
2013-08-31 15:43:00,76.6,73.4,29.01,NNW,328,2.0,6.0,90,0.01,,,0.02,WUHU216DAVISVP2,2013-08-31 19:43:00,
2013-08-31 15:44:00,76.6,73.4,29.01,NNW,328,0.0,6.0,90,0.01,,,0.02,WUHU216DAVISVP2,2013-08-31 19:44:00,
2013-08-31 15:45:00,76.6,73.4,29.01,NNW,339,5.0,6.0,90,0.01,,,0.02,WUHU216DAVISVP2,2013-08-31 19:45:00,
2013-08-31 15:46:00,76.6,73.4,29.02,NNW,330,5.0,6.0,90,0.01,,,0.02,WUHU216DAVISVP2,2013-08-31 19:46:00,
2013-08-31 15:48:00,76.7,73.5,29.02,NNW,338,6.0,6.0,90,0.01,,,0.02,WUHU216DAVISVP2,2013-08-31 19:48:00,
2013-08-31 15:49:00,76.7,73.5,29.02,NW,326,4.0,6.0,90,0.01,,,0.02,WUHU216DAVISVP2,2013-08-31 19:49:00,
2013-08-31 15:50:00,76.7,73.5,29.02,NW,326,0.0,6.0,90,0.01,,,0.02,WUHU216DAVISVP2,2013-08-31 19:50:00,
2013-08-31 15:51:00,76.7,73.5,29.02,NW,326,2.0,6.0,90,0.01,,,0.02,WUHU216DAVISVP2,2013-08-31 19:51:00,
2013-08-31 15:53:00,76.8,73.6,29.02,NW,325,5.0,6.0,90,0.01,,,0.02,WUHU216DAVISVP2,2013-08-31 19:53:00,
2013-08-31 15:55:00,76.8,73.6,29.03,NW,317,5.0,6.0,90,0.01,,,0.02,WUHU216DAVISVP2,2013-08-31 19:55:00,
2013-08-31 15:56:00,76.7,73.5,29.03,WNW,299,5.0,6.0,90,0.01,,,0.02,WUHU216DAVISVP2,2013-08-31 19:56:00,
2013-08-31 15:58:00,76.7,73.5,29.03,WNW,303,5.0,7.0,90,0.01,,,0.02,WUHU216DAVISVP2,2013-08-31 19:58:00,
2013-08-31 15:59:00,76.7,73.5,29.03,WNW,303,4.0,7.0,90,0.01,,,0.02,WUHU216DAVISVP2,2013-08-31 19:59:00,
2013-08-31 16:00:00,76.7,73.5,29.03,WNW,303,2.0,7.0,90,0.01,,,0.02,WUHU216DAVISVP2,2013-08-31 20:00:00,
2013-08-31 16:01:00,76.7,73.5,29.03,WNW,303,1.0,7.0,90,0.01,,,0.02,WUHU216DAVISVP2,2013-08-31 20:01:00,
2013-08-31 16:04:00,76.7,73.5,29.04,SSW,209,1.0,7.0,90,0.00,,,0.02,WUHU216DAVISVP2,2013-08-31 20:04:00,
2013-08-31 16:06:00,76.7,73.5,29.05,West,273,5.0,7.0,90,0.00,,,0.02,WUHU216DAVISVP2,2013-08-31 20:06:00,
2013-08-31 16:07:00,76.7,73.5,29.06,WNW,283,7.0,8.0,90,0.00,,,0.02,WUHU216DAVISVP2,2013-08-31 20:07:00,
2013-08-31 16:09:00,76.5,73.7,29.07,West,279,7.0,10.0,91,0.00,,,0.02,WUHU216DAVISVP2,2013-08-31 20:09:00,
2013-08-31 16:11:00,76.3,73.5,29.07,WNW,285,6.0,10.0,91,0.00,,,0.02,WUHU216DAVISVP2,2013-08-31 20:11:00,
2013-08-31 16:12:00,76.3,73.5,29.07,West,271,7.0,10.0,91,0.00,,,0.02,WUHU216DAVISVP2,2013-08-31 20:12:00,
2013-08-31 16:14:00,76.0,73.2,29.07,WNW,299,7.0,12.0,91,0.00,,,0.02,WUHU216DAVISVP2,2013-08-31 20:14:00,
2013-08-31 16:15:00,76.0,73.2,29.07,WNW,301,6.0,12.0,91,0.00,,,0.02,WUHU216DAVISVP2,2013-08-31 20:15:00,
2013-08-31 16:16:00,75.8,73.0,29.06,WNW,303,6.0,12.0,91,0.00,,,0.02,WUHU216DAVISVP2,2013-08-31 20:16:00,
2013-08-31 16:17:00,75.8,73.0,29.06,NW,315,5.0,12.0,91,0.00,,,0.02,WUHU216DAVISVP2,2013-08-31 20:17:00,
2013-08-31 16:18:00,75.8,73.0,29.07,WNW,300,9.0,12.0,91,0.00,,,0.02,WUHU216DAVISVP2,2013-08-31 20:18:00,
2013-08-31 16:19:00,75.7,72.9,29.07,WNW,300,6.0,12.0,91,0.00,,,0.02,WUHU216DAVISVP2,2013-08-31 20:19:00,
2013-08-31 16:20:00,75.7,72.9,29.07,WNW,296,8.0,12.0,91,0.00,,,0.02,WUHU216DAVISVP2,2013-08-31 20:20:00,
2013-08-31 16:21:00,75.7,72.9,29.07,WNW,297,9.0,12.0,91,0.00,,,0.02,WUHU216DAVISVP2,2013-08-31 20:21:00,
2013-08-31 16:22:00,75.7,72.9,29.07,WNW,298,7.0,12.0,91,0.00,,,0.02,WUHU216DAVISVP2,2013-08-31 20:22:00,
2013-08-31 16:23:00,75.6,72.8,29.07,WNW,291,6.0,12.0,91,0.00,,,0.02,WUHU216DAVISVP2,2013-08-31 20:23:00,
2013-08-31 16:24:00,75.6,72.8,29.07,WSW,256,5.0,12.0,91,0.00,,,0.02,WUHU216DAVISVP2,2013-08-31 20:24:00,
2013-08-31 16:26:00,75.6,72.8,29.04,South,188,4.0,12.0,91,0.00,,,0.02,WUHU216DAVISVP2,2013-08-31 20:26:00,
2013-08-31 16:27:00,75.5,72.7,29.04,SSW,192,5.0,12.0,91,0.00,,,0.02,WUHU216DAVISVP2,2013-08-31 20:27:00,
2013-08-31 16:28:00,75.4,72.3,29.03,SSE,164,8.0,12.0,90,0.00,,,0.02,WUHU216DAVISVP2,2013-08-31 20:28:00,
2013-08-31 16:29:00,75.3,72.5,29.02,SSE,150,4.0,12.0,91,0.00,,,0.02,WUHU216DAVISVP2,2013-08-31 20:29:00,
2013-08-31 16:32:00,75.1,72.3,29.00,ESE,121,3.0,12.0,91,0.00,,,0.02,WUHU216DAVISVP2,2013-08-31 20:32:00,
2013-08-31 16:33:00,75.0,72.2,29.00,East,97,7.0,12.0,91,0.00,,,0.02,WUHU216DAVISVP2,2013-08-31 20:33:00,
2013-08-31 16:34:00,74.7,71.9,28.99,ESE,123,7.0,12.0,91,0.00,,,0.02,WUHU216DAVISVP2,2013-08-31 20:34:00,
2013-08-31 16:35:00,74.7,71.9,28.99,ESE,104,9.0,12.0,91,0.00,,,0.02,WUHU216DAVISVP2,2013-08-31 20:35:00,
2013-08-31 16:37:00,74.3,71.5,28.98,ESE,104,1.0,12.0,91,0.00,,,0.02,WUHU216DAVISVP2,2013-08-31 20:37:00,
2013-08-31 16:38:00,74.2,71.4,28.98,ESE,104,0.0,12.0,91,0.00,,,0.02,WUHU216DAVISVP2,2013-08-31 20:38:00,
2013-08-31 16:40:00,73.9,71.1,28.98,SSW,195,0.0,12.0,91,0.00,,,0.02,WUHU216DAVISVP2,2013-08-31 20:40:00,
2013-08-31 16:42:00,73.5,70.7,28.97,SE,127,5.0,12.0,91,0.00,,,0.02,WUHU216DAVISVP2,2013-08-31 20:42:00,
2013-08-31 16:43:00,73.4,70.6,28.97,SE,143,5.0,12.0,91,0.00,,,0.02,WUHU216DAVISVP2,2013-08-31 20:43:00,
2013-08-31 16:44:00,72.9,70.1,28.97,ENE,73,3.0,10.0,91,0.00,,,0.02,WUHU216DAVISVP2,2013-08-31 20:44:00,
2013-08-31 16:45:00,72.9,70.1,28.97,ESE,106,4.0,10.0,91,0.00,,,0.02,WUHU216DAVISVP2,2013-08-31 20:45:00,
2013-08-31 16:47:00,72.5,69.7,28.97,East,86,7.0,10.0,91,0.00,,,0.02,WUHU216DAVISVP2,2013-08-31 20:47:00,
2013-08-31 16:48:00,72.4,69.6,28.96,ESE,108,7.0,10.0,91,0.00,,,0.02,WUHU216DAVISVP2,2013-08-31 20:48:00,
2013-08-31 16:49:00,72.2,69.7,28.96,SE,137,7.0,10.0,92,0.00,,,0.02,WUHU216DAVISVP2,2013-08-31 20:49:00,
2013-08-31 16:50:00,72.2,69.7,28.96,ESE,119,7.0,10.0,92,0.00,,,0.02,WUHU216DAVISVP2,2013-08-31 20:50:00,
2013-08-31 16:52:00,71.9,69.4,28.96,SE,131,0.0,10.0,92,0.00,,,0.02,WUHU216DAVISVP2,2013-08-31 20:52:00,
2013-08-31 16:53:00,71.9,69.4,28.96,SSE,154,4.0,10.0,92,0.00,,,0.02,WUHU216DAVISVP2,2013-08-31 20:53:00,
2013-08-31 16:55:00,71.9,69.4,28.96,ESE,107,2.0,10.0,92,0.00,,,0.02,WUHU216DAVISVP2,2013-08-31 20:55:00,
2013-08-31 16:56:00,71.9,69.4,28.96,SSE,156,3.0,10.0,92,0.00,,,0.02,WUHU216DAVISVP2,2013-08-31 20:56:00,
2013-08-31 16:57:00,71.8,69.6,28.96,SW,231,1.0,10.0,93,0.00,,,0.02,WUHU216DAVISVP2,2013-08-31 20:57:00,
2013-08-31 16:58:00,71.8,69.6,28.96,SSW,209,2.0,10.0,93,0.00,,,0.02,WUHU216DAVISVP2,2013-08-31 20:58:00,
2013-08-31 17:00:00,71.7,69.5,28.97,SW,220,6.0,10.0,93,0.00,,,0.02,WUHU216DAVISVP2,2013-08-31 21:00:00,
2013-08-31 17:01:00,71.6,69.4,28.97,SSW,210,1.0,10.0,93,0.00,,,0.02,WUHU216DAVISVP2,2013-08-31 21:01:00,
2013-08-31 17:03:00,71.5,69.3,28.97,SSE,168,4.0,10.0,93,0.00,,,0.02,WUHU216DAVISVP2,2013-08-31 21:03:00,
2013-08-31 17:05:00,71.3,69.1,28.97,SSE,165,5.0,10.0,93,0.00,,,0.02,WUHU216DAVISVP2,2013-08-31 21:05:00,
2013-08-31 17:06:00,71.3,69.1,28.97,SE,144,2.0,10.0,93,0.00,,,0.02,WUHU216DAVISVP2,2013-08-31 21:06:00,
2013-08-31 17:07:00,71.2,69.0,28.96,SE,135,0.0,10.0,93,0.00,,,0.02,WUHU216DAVISVP2,2013-08-31 21:07:00,
2013-08-31 17:08:00,71.2,69.0,28.96,SE,135,0.0,8.0,93,0.00,,,0.02,WUHU216DAVISVP2,2013-08-31 21:08:00,
2013-08-31 17:11:00,71.1,68.9,28.96,SSW,199,1.0,7.0,93,0.00,,,0.02,WUHU216DAVISVP2,2013-08-31 21:11:00,
2013-08-31 17:12:00,71.0,68.8,28.96,South,180,7.0,7.0,93,0.00,,,0.02,WUHU216DAVISVP2,2013-08-31 21:12:00,
2013-08-31 17:13:00,70.9,68.7,28.96,SSW,195,1.0,8.0,93,0.00,,,0.02,WUHU216DAVISVP2,2013-08-31 21:13:00,
2013-08-31 17:16:00,70.8,68.6,28.95,SSE,166,5.0,10.0,93,0.00,,,0.02,WUHU216DAVISVP2,2013-08-31 21:16:00,
2013-08-31 17:17:00,70.8,68.6,28.95,SE,137,4.0,10.0,93,0.00,,,0.02,WUHU216DAVISVP2,2013-08-31 21:17:00,
2013-08-31 17:18:00,70.7,68.5,28.95,ESE,116,1.0,10.0,93,0.00,,,0.02,WUHU216DAVISVP2,2013-08-31 21:18:00,
2013-08-31 17:19:00,70.7,68.5,28.95,ESE,110,2.0,10.0,93,0.01,,,0.03,WUHU216DAVISVP2,2013-08-31 21:19:00,
2013-08-31 17:21:00,70.7,68.5,28.94,SE,125,5.0,10.0,93,0.01,,,0.03,WUHU216DAVISVP2,2013-08-31 21:21:00,
2013-08-31 17:23:00,70.8,68.6,28.94,SSE,153,0.0,10.0,93,0.01,,,0.03,WUHU216DAVISVP2,2013-08-31 21:23:00,
2013-08-31 17:24:00,70.8,68.6,28.94,ESE,115,2.0,10.0,93,0.01,,,0.03,WUHU216DAVISVP2,2013-08-31 21:24:00,
2013-08-31 17:25:00,70.9,68.7,28.94,ESE,116,2.0,10.0,93,0.01,,,0.03,WUHU216DAVISVP2,2013-08-31 21:25:00,
2013-08-31 17:27:00,71.1,68.9,28.94,SE,127,4.0,10.0,93,0.01,,,0.03,WUHU216DAVISVP2,2013-08-31 21:27:00,
2013-08-31 17:28:00,71.2,69.0,28.94,ESE,117,4.0,10.0,93,0.01,,,0.03,WUHU216DAVISVP2,2013-08-31 21:28:00,
2013-08-31 17:29:00,71.3,69.1,28.94,East,90,0.0,10.0,93,0.01,,,0.03,WUHU216DAVISVP2,2013-08-31 21:29:00,
2013-08-31 17:30:00,71.5,69.3,28.94,East,89,1.0,10.0,93,0.01,,,0.03,WUHU216DAVISVP2,2013-08-31 21:30:00,
2013-08-31 17:31:00,71.6,69.4,28.94,SSW,203,2.0,10.0,93,0.01,,,0.03,WUHU216DAVISVP2,2013-08-31 21:31:00,
2013-08-31 17:32:00,71.8,69.6,28.94,South,174,4.0,10.0,93,0.01,,,0.03,WUHU216DAVISVP2,2013-08-31 21:32:00,
2013-08-31 17:33:00,71.8,69.6,28.94,SE,144,4.0,10.0,93,0.01,,,0.03,WUHU216DAVISVP2,2013-08-31 21:33:00,
2013-08-31 17:34:00,71.9,69.4,28.94,SE,138,4.0,10.0,92,0.01,,,0.03,WUHU216DAVISVP2,2013-08-31 21:34:00,
2013-08-31 17:36:00,72.2,70.0,28.94,SSE,168,1.0,7.0,93,0.01,,,0.03,WUHU216DAVISVP2,2013-08-31 21:36:00,
2013-08-31 17:37:00,72.3,70.1,28.94,SSE,168,1.0,7.0,93,0.01,,,0.03,WUHU216DAVISVP2,2013-08-31 21:37:00,
2013-08-31 17:38:00,72.4,69.9,28.94,SSE,168,1.0,7.0,92,0.01,,,0.03,WUHU216DAVISVP2,2013-08-31 21:38:00,
2013-08-31 17:39:00,72.4,69.9,28.94,SSE,168,0.0,7.0,92,0.01,,,0.03,WUHU216DAVISVP2,2013-08-31 21:39:00,
2013-08-31 17:41:00,72.6,70.1,28.94,SW,215,2.0,7.0,92,0.01,,,0.03,WUHU216DAVISVP2,2013-08-31 21:41:00,
2013-08-31 17:42:00,72.7,70.2,28.95,SSE,157,7.0,7.0,92,0.01,,,0.03,WUHU216DAVISVP2,2013-08-31 21:42:00,
2013-08-31 17:43:00,72.6,70.1,28.95,SE,137,6.0,9.0,92,0.01,,,0.03,WUHU216DAVISVP2,2013-08-31 21:43:00,
2013-08-31 17:44:00,72.5,69.7,28.95,SSE,167,4.0,9.0,91,0.01,,,0.03,WUHU216DAVISVP2,2013-08-31 21:44:00,
2013-08-31 17:45:00,72.5,69.4,28.95,SSE,168,6.0,9.0,90,0.01,,,0.03,WUHU216DAVISVP2,2013-08-31 21:45:00,
2013-08-31 17:46:00,72.5,69.4,28.95,SE,142,4.0,9.0,90,0.01,,,0.03,WUHU216DAVISVP2,2013-08-31 21:46:00,
2013-08-31 17:48:00,72.5,69.4,28.95,SSE,149,0.0,9.0,90,0.01,,,0.03,WUHU216DAVISVP2,2013-08-31 21:48:00,
2013-08-31 17:49:00,72.6,69.5,28.95,SSE,152,0.0,9.0,90,0.01,,,0.03,WUHU216DAVISVP2,2013-08-31 21:49:00,
2013-08-31 17:50:00,72.6,69.5,28.95,SSW,212,1.0,9.0,90,0.01,,,0.03,WUHU216DAVISVP2,2013-08-31 21:50:00,
2013-08-31 17:51:00,72.7,69.6,28.95,SSW,195,1.0,9.0,90,0.01,,,0.03,WUHU216DAVISVP2,2013-08-31 21:51:00,
2013-08-31 17:53:00,72.6,69.5,28.95,SSE,162,3.0,9.0,90,0.01,,,0.03,WUHU216DAVISVP2,2013-08-31 21:53:00,
2013-08-31 17:54:00,72.6,69.5,28.95,South,178,5.0,9.0,90,0.01,,,0.03,WUHU216DAVISVP2,2013-08-31 21:54:00,
2013-08-31 17:55:00,72.6,69.5,28.96,SSE,147,5.0,9.0,90,0.01,,,0.03,WUHU216DAVISVP2,2013-08-31 21:55:00,
2013-08-31 17:57:00,72.6,69.2,28.95,SSE,159,5.0,9.0,89,0.01,,,0.03,WUHU216DAVISVP2,2013-08-31 21:57:00,
2013-08-31 17:58:00,72.6,69.2,28.96,South,174,4.0,9.0,89,0.01,,,0.03,WUHU216DAVISVP2,2013-08-31 21:58:00,
2013-08-31 17:59:00,72.6,69.2,28.96,South,174,4.0,9.0,89,0.01,,,0.03,WUHU216DAVISVP2,2013-08-31 21:59:00,
2013-08-31 18:00:00,72.7,69.3,28.96,SSW,202,3.0,9.0,89,0.01,,,0.03,WUHU216DAVISVP2,2013-08-31 22:00:00,
2013-08-31 18:02:00,72.8,69.4,28.96,SSW,195,2.0,9.0,89,0.01,,,0.03,WUHU216DAVISVP2,2013-08-31 22:02:00,
2013-08-31 18:04:00,72.7,69.3,28.97,SSE,148,2.0,9.0,89,0.01,,,0.03,WUHU216DAVISVP2,2013-08-31 22:04:00,
2013-08-31 18:05:00,72.8,69.4,28.97,SSE,152,0.0,9.0,89,0.01,,,0.03,WUHU216DAVISVP2,2013-08-31 22:05:00,
2013-08-31 18:07:00,72.8,69.4,28.97,SSE,154,5.0,9.0,89,0.01,,,0.03,WUHU216DAVISVP2,2013-08-31 22:07:00,
2013-08-31 18:08:00,72.8,69.4,28.96,SSE,160,1.0,9.0,89,0.01,,,0.03,WUHU216DAVISVP2,2013-08-31 22:08:00,
2013-08-31 18:09:00,72.8,69.4,28.96,SSE,164,4.0,9.0,89,0.01,,,0.03,WUHU216DAVISVP2,2013-08-31 22:09:00,
2013-08-31 18:11:00,72.8,69.4,28.96,South,181,4.0,9.0,89,0.01,,,0.03,WUHU216DAVISVP2,2013-08-31 22:11:00,
2013-08-31 18:14:00,72.8,69.4,28.96,SSE,168,6.0,8.0,89,0.01,,,0.03,WUHU216DAVISVP2,2013-08-31 22:14:00,
2013-08-31 18:15:00,72.8,69.4,28.96,South,174,1.0,8.0,89,0.01,,,0.03,WUHU216DAVISVP2,2013-08-31 22:15:00,
2013-08-31 18:16:00,72.8,69.4,28.95,SSW,193,0.0,8.0,89,0.01,,,0.03,WUHU216DAVISVP2,2013-08-31 22:16:00,
2013-08-31 18:19:00,72.7,69.3,28.96,SSE,166,10.0,10.0,89,0.00,,,0.03,WUHU216DAVISVP2,2013-08-31 22:19:00,
2013-08-31 18:20:00,72.7,69.3,28.96,SSE,166,10.0,10.0,89,0.00,,,0.03,WUHU216DAVISVP2,2013-08-31 22:20:00,
2013-08-31 18:21:00,72.7,69.3,28.96,SE,143,1.0,10.0,89,0.00,,,0.03,WUHU216DAVISVP2,2013-08-31 22:21:00,
2013-08-31 18:25:00,72.7,69.3,28.94,South,187,2.0,10.0,89,0.00,,,0.03,WUHU216DAVISVP2,2013-08-31 22:25:00,
2013-08-31 18:26:00,72.7,69.3,28.94,South,187,0.0,10.0,89,0.00,,,0.03,WUHU216DAVISVP2,2013-08-31 22:26:00,
2013-08-31 18:27:00,72.6,69.2,28.94,South,177,4.0,10.0,89,0.00,,,0.03,WUHU216DAVISVP2,2013-08-31 22:27:00,
2013-08-31 18:30:00,72.6,69.2,28.94,SSE,162,2.0,10.0,89,0.00,,,0.03,WUHU216DAVISVP2,2013-08-31 22:30:00,
2013-08-31 18:31:00,72.5,69.1,28.94,South,189,0.0,10.0,89,0.00,,,0.03,WUHU216DAVISVP2,2013-08-31 22:31:00,
2013-08-31 18:32:00,72.5,69.1,28.94,South,174,4.0,10.0,89,0.00,,,0.03,WUHU216DAVISVP2,2013-08-31 22:32:00,
2013-08-31 18:35:00,72.5,68.7,28.94,South,173,0.0,10.0,88,0.00,,,0.03,WUHU216DAVISVP2,2013-08-31 22:35:00,
2013-08-31 18:36:00,72.5,68.7,28.94,South,173,1.0,10.0,88,0.00,,,0.03,WUHU216DAVISVP2,2013-08-31 22:36:00,
2013-08-31 18:37:00,72.5,68.7,28.95,South,173,1.0,10.0,88,0.00,,,0.03,WUHU216DAVISVP2,2013-08-31 22:37:00,
2013-08-31 18:40:00,72.4,68.6,28.95,South,173,4.0,9.0,88,0.00,,,0.03,WUHU216DAVISVP2,2013-08-31 22:40:00,
2013-08-31 18:41:00,72.4,68.6,28.95,South,173,0.0,9.0,88,0.00,,,0.03,WUHU216DAVISVP2,2013-08-31 22:41:00,
2013-08-31 18:42:00,72.4,68.6,28.95,South,174,0.0,9.0,88,0.00,,,0.03,WUHU216DAVISVP2,2013-08-31 22:42:00,
2013-08-31 18:43:00,72.4,68.6,28.95,South,175,0.0,9.0,88,0.00,,,0.03,WUHU216DAVISVP2,2013-08-31 22:43:00,
2013-08-31 18:45:00,72.4,68.6,28.94,South,175,0.0,9.0,88,0.00,,,0.03,WUHU216DAVISVP2,2013-08-31 22:45:00,
2013-08-31 18:46:00,72.4,68.6,28.94,South,175,0.0,9.0,88,0.00,,,0.03,WUHU216DAVISVP2,2013-08-31 22:46:00,
2013-08-31 18:47:00,72.4,68.6,28.95,South,175,0.0,9.0,88,0.00,,,0.03,WUHU216DAVISVP2,2013-08-31 22:47:00,
2013-08-31 18:48:00,72.4,68.6,28.95,South,175,0.0,9.0,88,0.00,,,0.03,WUHU216DAVISVP2,2013-08-31 22:48:00,
2013-08-31 18:50:00,72.4,68.3,28.95,South,175,0.0,9.0,87,0.00,,,0.03,WUHU216DAVISVP2,2013-08-31 22:50:00,
2013-08-31 18:51:00,72.4,68.3,28.96,South,175,0.0,9.0,87,0.00,,,0.03,WUHU216DAVISVP2,2013-08-31 22:51:00,
2013-08-31 18:52:00,72.4,68.3,28.96,South,175,0.0,9.0,87,0.00,,,0.03,WUHU216DAVISVP2,2013-08-31 22:52:00,
2013-08-31 18:53:00,72.4,68.3,28.96,South,175,0.0,5.0,87,0.00,,,0.03,WUHU216DAVISVP2,2013-08-31 22:53:00,
2013-08-31 18:54:00,72.4,68.3,28.96,South,175,0.0,5.0,87,0.00,,,0.03,WUHU216DAVISVP2,2013-08-31 22:54:00,
2013-08-31 18:56:00,72.5,68.4,28.96,South,175,0.0,5.0,87,0.00,,,0.03,WUHU216DAVISVP2,2013-08-31 22:56:00,
2013-08-31 18:57:00,72.5,68.4,28.96,South,175,0.0,5.0,87,0.00,,,0.03,WUHU216DAVISVP2,2013-08-31 22:57:00,
2013-08-31 18:58:00,72.5,68.7,28.96,South,175,0.0,5.0,88,0.00,,,0.03,WUHU216DAVISVP2,2013-08-31 22:58:00,
2013-08-31 18:59:00,72.5,68.4,28.96,South,175,0.0,5.0,87,0.00,,,0.03,WUHU216DAVISVP2,2013-08-31 22:59:00,
2013-08-31 19:01:00,72.5,68.4,28.96,South,175,0.0,5.0,87,0.00,,,0.03,WUHU216DAVISVP2,2013-08-31 23:01:00,
2013-08-31 19:03:00,72.6,68.5,28.96,South,175,1.0,5.0,87,0.00,,,0.03,WUHU216DAVISVP2,2013-08-31 23:03:00,
2013-08-31 19:04:00,72.7,68.6,28.96,South,175,5.0,5.0,87,0.00,,,0.03,WUHU216DAVISVP2,2013-08-31 23:04:00,
2013-08-31 19:05:00,72.7,68.6,28.96,South,175,5.0,5.0,87,0.00,,,0.03,WUHU216DAVISVP2,2013-08-31 23:05:00,
2013-08-31 19:06:00,72.7,68.6,28.96,South,175,5.0,6.0,87,0.00,,,0.03,WUHU216DAVISVP2,2013-08-31 23:06:00,
2013-08-31 19:08:00,72.7,68.6,28.96,South,175,4.0,6.0,87,0.00,,,0.03,WUHU216DAVISVP2,2013-08-31 23:08:00,
2013-08-31 19:09:00,72.7,68.9,28.96,South,175,4.0,6.0,88,0.00,,,0.03,WUHU216DAVISVP2,2013-08-31 23:09:00,
2013-08-31 19:11:00,72.7,68.9,28.96,South,175,4.0,6.0,88,0.00,,,0.03,WUHU216DAVISVP2,2013-08-31 23:11:00,
2013-08-31 19:13:00,72.6,68.8,28.96,South,175,5.0,6.0,88,0.00,,,0.03,WUHU216DAVISVP2,2013-08-31 23:13:00,
2013-08-31 19:16:00,72.6,68.8,28.97,North,359,5.0,6.0,88,0.00,,,0.03,WUHU216DAVISVP2,2013-08-31 23:16:00,
2013-08-31 19:17:00,72.6,68.8,28.97,North,359,6.0,6.0,88,0.00,,,0.03,WUHU216DAVISVP2,2013-08-31 23:17:00,
2013-08-31 19:18:00,72.6,68.8,28.96,North,359,5.0,6.0,88,0.00,,,0.03,WUHU216DAVISVP2,2013-08-31 23:18:00,
2013-08-31 19:21:00,72.6,69.2,28.96,North,359,4.0,6.0,89,0.00,,,0.03,WUHU216DAVISVP2,2013-08-31 23:21:00,
2013-08-31 19:22:00,72.6,69.2,28.96,North,359,5.0,6.0,89,0.00,,,0.03,WUHU216DAVISVP2,2013-08-31 23:22:00,
2013-08-31 19:23:00,72.6,69.2,28.96,North,359,2.0,6.0,89,0.00,,,0.03,WUHU216DAVISVP2,2013-08-31 23:23:00,
2013-08-31 19:24:00,72.6,68.8,28.96,North,359,2.0,6.0,88,0.00,,,0.03,WUHU216DAVISVP2,2013-08-31 23:24:00,
2013-08-31 19:26:00,72.6,68.8,28.97,North,359,4.0,6.0,88,0.00,,,0.03,WUHU216DAVISVP2,2013-08-31 23:26:00,
2013-08-31 19:27:00,72.6,68.8,28.97,North,359,4.0,6.0,88,0.00,,,0.03,WUHU216DAVISVP2,2013-08-31 23:27:00,
2013-08-31 19:28:00,72.6,68.8,28.97,North,359,4.0,6.0,88,0.00,,,0.03,WUHU216DAVISVP2,2013-08-31 23:28:00,
2013-08-31 19:29:00,72.6,68.8,28.97,North,359,4.0,6.0,88,0.00,,,0.03,WUHU216DAVISVP2,2013-08-31 23:29:00,
2013-08-31 19:31:00,72.6,68.8,28.97,North,359,4.0,6.0,88,0.00,,,0.03,WUHU216DAVISVP2,2013-08-31 23:31:00,
2013-08-31 19:32:00,72.6,68.8,28.97,North,359,5.0,6.0,88,0.00,,,0.03,WUHU216DAVISVP2,2013-08-31 23:32:00,
2013-08-31 19:33:00,72.5,68.7,28.97,North,359,4.0,6.0,88,0.00,,,0.03,WUHU216DAVISVP2,2013-08-31 23:33:00,
2013-08-31 19:34:00,72.5,68.7,28.97,North,359,6.0,6.0,88,0.00,,,0.03,WUHU216DAVISVP2,2013-08-31 23:34:00,
2013-08-31 19:36:00,72.5,68.4,28.97,ENE,57,0.0,6.0,87,0.00,,,0.03,WUHU216DAVISVP2,2013-08-31 23:36:00,
2013-08-31 19:37:00,72.5,68.4,28.97,ENE,57,4.0,6.0,87,0.00,,,0.03,WUHU216DAVISVP2,2013-08-31 23:37:00,
2013-08-31 19:39:00,72.5,68.4,28.97,NNE,31,5.0,7.0,87,0.00,,,0.03,WUHU216DAVISVP2,2013-08-31 23:39:00,
2013-08-31 19:41:00,72.5,68.7,28.97,NE,43,6.0,8.0,88,0.00,,,0.03,WUHU216DAVISVP2,2013-08-31 23:41:00,
2013-08-31 19:42:00,72.6,68.8,28.97,NNE,29,6.0,8.0,88,0.00,,,0.03,WUHU216DAVISVP2,2013-08-31 23:42:00,
2013-08-31 19:44:00,72.6,68.8,28.97,NNE,30,4.0,8.0,88,0.00,,,0.03,WUHU216DAVISVP2,2013-08-31 23:44:00,
2013-08-31 19:45:00,72.6,69.2,28.97,NNE,30,3.0,8.0,89,0.00,,,0.03,WUHU216DAVISVP2,2013-08-31 23:45:00,
2013-08-31 19:47:00,72.6,69.2,28.97,NNE,30,0.0,8.0,89,0.00,,,0.03,WUHU216DAVISVP2,2013-08-31 23:47:00,
2013-08-31 19:48:00,72.6,69.2,28.98,NNE,30,0.0,8.0,89,0.00,,,0.03,WUHU216DAVISVP2,2013-08-31 23:48:00,
2013-08-31 19:49:00,72.6,69.2,28.98,NNE,30,0.0,8.0,89,0.00,,,0.03,WUHU216DAVISVP2,2013-08-31 23:49:00,
2013-08-31 19:51:00,72.5,69.1,28.98,NNE,30,0.0,8.0,89,0.00,,,0.03,WUHU216DAVISVP2,2013-08-31 23:51:00,
2013-08-31 19:52:00,72.5,69.1,28.98,NNE,30,0.0,8.0,89,0.00,,,0.03,WUHU216DAVISVP2,2013-08-31 23:52:00,
2013-08-31 19:53:00,72.4,69.0,28.98,NNE,30,0.0,8.0,89,0.00,,,0.03,WUHU216DAVISVP2,2013-08-31 23:53:00,
2013-08-31 19:54:00,72.4,69.0,28.98,NNE,30,2.0,8.0,89,0.00,,,0.03,WUHU216DAVISVP2,2013-08-31 23:54:00,
2013-08-31 19:55:00,72.4,69.0,28.98,NNE,30,1.0,8.0,89,0.00,,,0.03,WUHU216DAVISVP2,2013-08-31 23:55:00,
2013-08-31 19:56:00,72.3,68.9,28.98,NNE,30,4.0,8.0,89,0.00,,,0.03,WUHU216DAVISVP2,2013-08-31 23:56:00,
2013-08-31 19:57:00,72.3,68.9,28.98,NNE,30,0.0,8.0,89,0.00,,,0.03,WUHU216DAVISVP2,2013-08-31 23:57:00,
2013-08-31 19:58:00,72.2,68.8,28.98,NNE,30,0.0,8.0,89,0.00,,,0.03,WUHU216DAVISVP2,2013-08-31 23:58:00,
2013-08-31 19:59:00,72.2,69.1,28.98,NNE,30,2.0,8.0,90,0.00,,,0.03,WUHU216DAVISVP2,2013-08-31 23:59:00,
2013-08-31 20:00:00,72.2,69.1,28.98,NNE,30,2.0,8.0,90,0.00,,,0.03,WUHU216DAVISVP2,2013-09-01 00:00:00,
2013-08-31 20:01:00,72.1,69.0,28.98,NNE,30,0.0,8.0,90,0.00,,,0.03,WUHU216DAVISVP2,2013-09-01 00:01:00,
2013-08-31 20:03:00,72.1,69.0,28.98,NNE,30,0.0,6.0,90,0.00,,,0.03,WUHU216DAVISVP2,2013-09-01 00:03:00,
2013-08-31 20:04:00,72.1,69.0,28.98,NNE,30,0.0,4.0,90,0.00,,,0.03,WUHU216DAVISVP2,2013-09-01 00:04:00,
2013-08-31 20:06:00,72.1,69.0,28.98,NNE,30,0.0,4.0,90,0.00,,,0.03,WUHU216DAVISVP2,2013-09-01 00:06:00,
2013-08-31 20:08:00,72.1,69.0,28.99,NNE,30,0.0,4.0,90,0.00,,,0.03,WUHU216DAVISVP2,2013-09-01 00:08:00,
2013-08-31 20:09:00,72.1,69.0,28.99,NNE,30,0.0,4.0,90,0.00,,,0.03,WUHU216DAVISVP2,2013-09-01 00:09:00,
2013-08-31 20:10:00,72.1,69.0,28.99,NNE,29,0.0,4.0,90,0.00,,,0.03,WUHU216DAVISVP2,2013-09-01 00:10:00,
2013-08-31 20:11:00,72.1,69.0,28.99,NNE,30,0.0,4.0,90,0.00,,,0.03,WUHU216DAVISVP2,2013-09-01 00:11:00,
2013-08-31 20:13:00,72.0,68.9,28.99,NNE,30,0.0,4.0,90,0.00,,,0.03,WUHU216DAVISVP2,2013-09-01 00:13:00,
2013-08-31 20:15:00,72.0,69.2,28.99,NNE,30,0.0,4.0,91,0.00,,,0.03,WUHU216DAVISVP2,2013-09-01 00:15:00,
2013-08-31 20:16:00,72.0,69.2,28.99,NNE,30,0.0,4.0,91,0.00,,,0.03,WUHU216DAVISVP2,2013-09-01 00:16:00,
2013-08-31 20:18:00,71.9,69.1,28.99,NNE,30,0.0,2.0,91,0.00,,,0.03,WUHU216DAVISVP2,2013-09-01 00:18:00,
2013-08-31 20:20:00,71.9,69.1,28.99,NNE,30,1.0,2.0,91,0.00,,,0.03,WUHU216DAVISVP2,2013-09-01 00:20:00,
2013-08-31 20:21:00,71.9,69.1,28.99,NNE,30,0.0,2.0,91,0.00,,,0.03,WUHU216DAVISVP2,2013-09-01 00:21:00,
2013-08-31 20:22:00,71.9,69.1,28.99,NNE,30,0.0,2.0,91,0.00,,,0.03,WUHU216DAVISVP2,2013-09-01 00:22:00,
2013-08-31 20:23:00,71.9,69.1,28.99,NNE,30,0.0,2.0,91,0.00,,,0.03,WUHU216DAVISVP2,2013-09-01 00:23:00,
2013-08-31 20:25:00,71.9,69.1,28.99,NNE,30,0.0,2.0,91,0.00,,,0.03,WUHU216DAVISVP2,2013-09-01 00:25:00,
2013-08-31 20:26:00,71.8,69.0,28.99,NNE,30,0.0,2.0,91,0.00,,,0.03,WUHU216DAVISVP2,2013-09-01 00:26:00,
2013-08-31 20:28:00,71.8,69.0,28.99,NNE,30,0.0,2.0,91,0.00,,,0.03,WUHU216DAVISVP2,2013-09-01 00:28:00,
2013-08-31 20:29:00,71.8,69.0,28.99,NNE,30,1.0,2.0,91,0.00,,,0.03,WUHU216DAVISVP2,2013-09-01 00:29:00,
2013-08-31 20:30:00,71.8,69.0,28.99,NNE,30,0.0,2.0,91,0.00,,,0.03,WUHU216DAVISVP2,2013-09-01 00:30:00,
2013-08-31 20:31:00,71.7,68.9,28.99,NNE,30,0.0,2.0,91,0.00,,,0.03,WUHU216DAVISVP2,2013-09-01 00:31:00,
2013-08-31 20:33:00,71.7,69.2,28.99,NNE,30,0.0,2.0,92,0.00,,,0.03,WUHU216DAVISVP2,2013-09-01 00:33:00,
2013-08-31 20:34:00,71.7,69.2,28.99,NNE,30,0.0,2.0,92,0.00,,,0.03,WUHU216DAVISVP2,2013-09-01 00:34:00,
2013-08-31 20:35:00,71.6,69.1,28.99,NNE,30,2.0,2.0,92,0.00,,,0.03,WUHU216DAVISVP2,2013-09-01 00:35:00,
2013-08-31 20:36:00,71.6,69.1,28.99,NNE,30,2.0,3.0,92,0.00,,,0.03,WUHU216DAVISVP2,2013-09-01 00:36:00,
2013-08-31 20:38:00,71.6,69.1,28.99,NNE,30,0.0,3.0,92,0.00,,,0.03,WUHU216DAVISVP2,2013-09-01 00:38:00,
2013-08-31 20:39:00,71.5,69.0,28.99,NNE,30,1.0,3.0,92,0.00,,,0.03,WUHU216DAVISVP2,2013-09-01 00:39:00,
2013-08-31 20:40:00,71.5,69.0,28.98,NNE,29,1.0,4.0,92,0.00,,,0.03,WUHU216DAVISVP2,2013-09-01 00:40:00,
2013-08-31 20:41:00,71.5,69.0,28.98,NNE,30,1.0,4.0,92,0.00,,,0.03,WUHU216DAVISVP2,2013-09-01 00:41:00,
2013-08-31 20:42:00,71.5,69.0,28.99,NNE,30,1.0,4.0,92,0.00,,,0.03,WUHU216DAVISVP2,2013-09-01 00:42:00,
2013-08-31 20:43:00,71.5,69.0,28.98,NNE,30,0.0,4.0,92,0.00,,,0.03,WUHU216DAVISVP2,2013-09-01 00:43:00,
2013-08-31 20:45:00,71.5,69.0,28.99,NNE,30,1.0,4.0,92,0.00,,,0.03,WUHU216DAVISVP2,2013-09-01 00:45:00,
2013-08-31 20:46:00,71.5,69.0,28.98,NNE,30,0.0,4.0,92,0.00,,,0.03,WUHU216DAVISVP2,2013-09-01 00:46:00,
2013-08-31 20:47:00,71.5,69.3,28.98,NNE,30,0.0,4.0,93,0.00,,,0.03,WUHU216DAVISVP2,2013-09-01 00:47:00,
2013-08-31 20:49:00,71.4,69.2,28.98,NNE,30,4.0,5.0,93,0.00,,,0.03,WUHU216DAVISVP2,2013-09-01 00:49:00,
2013-08-31 20:50:00,71.4,69.2,28.98,NNE,30,2.0,5.0,93,0.00,,,0.03,WUHU216DAVISVP2,2013-09-01 00:50:00,
2013-08-31 20:51:00,71.4,69.2,28.99,NNE,30,1.0,5.0,93,0.00,,,0.03,WUHU216DAVISVP2,2013-09-01 00:51:00,
2013-08-31 20:52:00,71.4,69.2,28.99,NNE,30,1.0,5.0,93,0.00,,,0.03,WUHU216DAVISVP2,2013-09-01 00:52:00,
2013-08-31 20:54:00,71.4,69.2,28.99,NNE,30,0.0,5.0,93,0.00,,,0.03,WUHU216DAVISVP2,2013-09-01 00:54:00,
2013-08-31 20:55:00,71.4,69.2,28.99,NNE,30,1.0,5.0,93,0.00,,,0.03,WUHU216DAVISVP2,2013-09-01 00:55:00,
2013-08-31 20:56:00,71.4,69.2,28.99,NNE,30,1.0,5.0,93,0.00,,,0.03,WUHU216DAVISVP2,2013-09-01 00:56:00,
2013-08-31 20:57:00,71.4,69.2,28.99,NNE,30,1.0,5.0,93,0.00,,,0.03,WUHU216DAVISVP2,2013-09-01 00:57:00,
2013-08-31 20:58:00,71.3,69.1,28.99,NNE,30,2.0,5.0,93,0.00,,,0.03,WUHU216DAVISVP2,2013-09-01 00:58:00,
2013-08-31 20:59:00,71.3,69.1,28.99,NNE,30,1.0,5.0,93,0.00,,,0.03,WUHU216DAVISVP2,2013-09-01 00:59:00,
2013-08-31 21:00:00,71.3,69.1,28.99,NNE,30,1.0,5.0,93,0.00,,,0.03,WUHU216DAVISVP2,2013-09-01 01:00:00,
2013-08-31 21:01:00,71.3,69.1,28.99,NNE,30,1.0,5.0,93,0.00,,,0.03,WUHU216DAVISVP2,2013-09-01 01:01:00,
2013-08-31 21:02:00,71.3,69.1,29.00,NNE,30,1.0,5.0,93,0.00,,,0.03,WUHU216DAVISVP2,2013-09-01 01:02:00,
2013-08-31 21:03:00,71.3,69.1,29.00,NNE,30,0.0,5.0,93,0.00,,,0.03,WUHU216DAVISVP2,2013-09-01 01:03:00,
2013-08-31 21:04:00,71.3,69.1,29.00,NNE,30,0.0,5.0,93,0.00,,,0.03,WUHU216DAVISVP2,2013-09-01 01:04:00,
2013-08-31 21:06:00,71.4,69.2,29.00,NNE,30,0.0,5.0,93,0.00,,,0.03,WUHU216DAVISVP2,2013-09-01 01:06:00,
2013-08-31 21:07:00,71.4,69.2,29.00,NNE,30,0.0,5.0,93,0.00,,,0.03,WUHU216DAVISVP2,2013-09-01 01:07:00,
2013-08-31 21:08:00,71.4,69.2,29.00,NNE,30,0.0,4.0,93,0.00,,,0.03,WUHU216DAVISVP2,2013-09-01 01:08:00,
2013-08-31 21:09:00,71.3,69.1,28.99,NNE,30,0.0,2.0,93,0.00,,,0.03,WUHU216DAVISVP2,2013-09-01 01:09:00,
2013-08-31 21:11:00,71.3,69.1,29.00,NNE,30,0.0,2.0,93,0.00,,,0.03,WUHU216DAVISVP2,2013-09-01 01:11:00,
2013-08-31 21:12:00,71.4,69.2,29.00,NNE,30,0.0,2.0,93,0.00,,,0.03,WUHU216DAVISVP2,2013-09-01 01:12:00,
2013-08-31 21:13:00,71.3,69.1,29.00,NNE,30,2.0,2.0,93,0.00,,,0.03,WUHU216DAVISVP2,2013-09-01 01:13:00,
2013-08-31 21:15:00,71.3,69.1,29.00,NNE,30,0.0,2.0,93,0.00,,,0.03,WUHU216DAVISVP2,2013-09-01 01:15:00,
2013-08-31 21:16:00,71.3,69.1,29.01,NNE,30,0.0,2.0,93,0.00,,,0.03,WUHU216DAVISVP2,2013-09-01 01:16:00,
2013-08-31 21:17:00,71.3,69.1,29.01,NNE,30,0.0,2.0,93,0.00,,,0.03,WUHU216DAVISVP2,2013-09-01 01:17:00,
2013-08-31 21:18:00,71.2,69.0,29.01,NNE,30,1.0,2.0,93,0.00,,,0.03,WUHU216DAVISVP2,2013-09-01 01:18:00,
2013-08-31 21:20:00,71.1,68.9,29.02,NNE,30,0.0,3.0,93,0.00,,,0.03,WUHU216DAVISVP2,2013-09-01 01:20:00,
2013-08-31 21:22:00,71.1,68.9,29.02,NNE,30,0.0,5.0,93,0.00,,,0.03,WUHU216DAVISVP2,2013-09-01 01:22:00,
2013-08-31 21:23:00,71.1,68.9,29.01,NNE,30,0.0,5.0,93,0.00,,,0.03,WUHU216DAVISVP2,2013-09-01 01:23:00,
2013-08-31 21:24:00,71.1,68.9,29.01,NNE,30,0.0,5.0,93,0.00,,,0.03,WUHU216DAVISVP2,2013-09-01 01:24:00,
2013-08-31 21:25:00,71.0,68.8,29.01,NNE,30,0.0,5.0,93,0.00,,,0.03,WUHU216DAVISVP2,2013-09-01 01:25:00,
2013-08-31 21:27:00,71.0,68.8,29.02,NNE,30,0.0,5.0,93,0.00,,,0.03,WUHU216DAVISVP2,2013-09-01 01:27:00,
2013-08-31 21:28:00,71.0,68.8,29.02,NNE,30,0.0,5.0,93,0.00,,,0.03,WUHU216DAVISVP2,2013-09-01 01:28:00,
2013-08-31 21:29:00,71.0,68.8,29.02,NNE,30,0.0,5.0,93,0.00,,,0.03,WUHU216DAVISVP2,2013-09-01 01:29:00,
2013-08-31 21:30:00,71.0,68.8,29.02,NNE,30,0.0,5.0,93,0.00,,,0.03,WUHU216DAVISVP2,2013-09-01 01:30:00,
2013-08-31 21:33:00,70.9,68.7,29.02,NNE,30,2.0,5.0,93,0.00,,,0.03,WUHU216DAVISVP2,2013-09-01 01:33:00,
2013-08-31 21:34:00,70.9,68.7,29.02,NNE,30,5.0,5.0,93,0.00,,,0.03,WUHU216DAVISVP2,2013-09-01 01:34:00,
2013-08-31 21:35:00,71.0,68.8,29.02,NNE,30,5.0,6.0,93,0.00,,,0.03,WUHU216DAVISVP2,2013-09-01 01:35:00,
2013-08-31 21:38:00,71.0,68.8,29.03,NNE,30,4.0,7.0,93,0.00,,,0.03,WUHU216DAVISVP2,2013-09-01 01:38:00,
2013-08-31 21:40:00,71.0,68.8,29.03,NNE,30,1.0,7.0,93,0.00,,,0.03,WUHU216DAVISVP2,2013-09-01 01:40:00,
2013-08-31 21:43:00,71.0,68.8,29.03,NNE,30,2.0,8.0,93,0.00,,,0.03,WUHU216DAVISVP2,2013-09-01 01:43:00,
2013-08-31 21:45:00,71.0,68.8,29.03,NNE,30,1.0,9.0,93,0.00,,,0.03,WUHU216DAVISVP2,2013-09-01 01:45:00,
2013-08-31 21:46:00,71.0,68.8,29.03,WSW,247,5.0,9.0,93,0.00,,,0.03,WUHU216DAVISVP2,2013-09-01 01:46:00,
2013-08-31 21:48:00,71.1,68.9,29.03,WSW,246,2.0,9.0,93,0.00,,,0.03,WUHU216DAVISVP2,2013-09-01 01:48:00,
2013-08-31 21:50:00,71.0,68.8,29.03,WSW,246,2.0,9.0,93,0.00,,,0.03,WUHU216DAVISVP2,2013-09-01 01:50:00,
2013-08-31 21:51:00,71.0,68.8,29.03,WSW,245,0.0,9.0,93,0.00,,,0.03,WUHU216DAVISVP2,2013-09-01 01:51:00,
2013-08-31 21:52:00,71.0,68.8,29.03,WSW,245,0.0,9.0,93,0.00,,,0.03,WUHU216DAVISVP2,2013-09-01 01:52:00,
2013-08-31 21:53:00,71.0,68.8,29.03,WSW,245,0.0,9.0,93,0.00,,,0.03,WUHU216DAVISVP2,2013-09-01 01:53:00,
2013-08-31 21:55:00,71.0,68.8,29.03,South,191,1.0,9.0,93,0.00,,,0.03,WUHU216DAVISVP2,2013-09-01 01:55:00,
2013-08-31 21:56:00,71.0,68.8,29.03,South,189,0.0,9.0,93,0.00,,,0.03,WUHU216DAVISVP2,2013-09-01 01:56:00,
2013-08-31 21:58:00,71.0,68.8,29.03,South,191,0.0,9.0,93,0.00,,,0.03,WUHU216DAVISVP2,2013-09-01 01:58:00,
2013-08-31 22:00:00,71.0,68.8,29.02,South,191,0.0,9.0,93,0.00,,,0.03,WUHU216DAVISVP2,2013-09-01 02:00:00,
2013-08-31 22:02:00,71.0,68.8,29.02,South,191,1.0,9.0,93,0.00,,,0.03,WUHU216DAVISVP2,2013-09-01 02:02:00,
2013-08-31 22:03:00,71.0,68.8,29.02,South,191,1.0,9.0,93,0.00,,,0.03,WUHU216DAVISVP2,2013-09-01 02:03:00,
2013-08-31 22:05:00,71.0,68.8,29.02,South,191,0.0,8.0,93,0.00,,,0.03,WUHU216DAVISVP2,2013-09-01 02:05:00,
2013-08-31 22:06:00,71.0,68.8,29.02,South,191,0.0,8.0,93,0.00,,,0.03,WUHU216DAVISVP2,2013-09-01 02:06:00,
2013-08-31 22:07:00,71.0,68.8,29.02,South,191,0.0,8.0,93,0.00,,,0.03,WUHU216DAVISVP2,2013-09-01 02:07:00,
2013-08-31 22:08:00,71.0,68.8,29.02,South,191,0.0,8.0,93,0.00,,,0.03,WUHU216DAVISVP2,2013-09-01 02:08:00,
2013-08-31 22:09:00,71.0,68.8,29.02,South,191,0.0,8.0,93,0.00,,,0.03,WUHU216DAVISVP2,2013-09-01 02:09:00,
2013-08-31 22:10:00,71.0,68.8,29.02,South,191,0.0,5.0,93,0.00,,,0.03,WUHU216DAVISVP2,2013-09-01 02:10:00,
2013-08-31 22:11:00,71.0,68.8,29.02,South,191,0.0,5.0,93,0.00,,,0.03,WUHU216DAVISVP2,2013-09-01 02:11:00,
2013-08-31 22:12:00,71.0,68.8,29.02,South,191,0.0,5.0,93,0.00,,,0.03,WUHU216DAVISVP2,2013-09-01 02:12:00,
2013-08-31 22:13:00,70.9,68.7,29.03,South,191,0.0,5.0,93,0.00,,,0.03,WUHU216DAVISVP2,2013-09-01 02:13:00,
2013-08-31 22:14:00,70.9,68.7,29.03,South,191,0.0,5.0,93,0.00,,,0.03,WUHU216DAVISVP2,2013-09-01 02:14:00,
2013-08-31 22:15:00,71.0,68.8,29.02,SSE,167,1.0,2.0,93,0.00,,,0.03,WUHU216DAVISVP2,2013-09-01 02:15:00,
2013-08-31 22:16:00,70.9,68.7,29.02,SSE,167,1.0,2.0,93,0.00,,,0.03,WUHU216DAVISVP2,2013-09-01 02:16:00,
2013-08-31 22:17:00,70.9,68.7,29.02,SSE,159,1.0,4.0,93,0.00,,,0.03,WUHU216DAVISVP2,2013-09-01 02:17:00,
2013-08-31 22:18:00,70.9,68.7,29.02,SSE,155,2.0,5.0,93,0.00,,,0.03,WUHU216DAVISVP2,2013-09-01 02:18:00,
2013-08-31 22:19:00,70.9,68.7,29.02,SE,133,2.0,5.0,93,0.00,,,0.03,WUHU216DAVISVP2,2013-09-01 02:19:00,
2013-08-31 22:20:00,70.8,68.6,29.01,ESE,104,3.0,5.0,93,0.00,,,0.03,WUHU216DAVISVP2,2013-09-01 02:20:00,
2013-08-31 22:21:00,70.8,68.6,29.01,East,88,1.0,5.0,93,0.00,,,0.03,WUHU216DAVISVP2,2013-09-01 02:21:00,
2013-08-31 22:22:00,70.8,68.6,29.01,East,88,0.0,5.0,93,0.00,,,0.03,WUHU216DAVISVP2,2013-09-01 02:22:00,
2013-08-31 22:23:00,70.8,68.6,29.01,East,88,0.0,5.0,93,0.00,,,0.03,WUHU216DAVISVP2,2013-09-01 02:23:00,
2013-08-31 22:24:00,70.8,68.6,29.01,East,88,0.0,5.0,93,0.00,,,0.03,WUHU216DAVISVP2,2013-09-01 02:24:00,
2013-08-31 22:25:00,70.8,68.6,29.01,East,88,1.0,5.0,93,0.00,,,0.03,WUHU216DAVISVP2,2013-09-01 02:25:00,
2013-08-31 22:26:00,70.7,68.5,29.01,East,95,4.0,5.0,93,0.00,,,0.03,WUHU216DAVISVP2,2013-09-01 02:26:00,
2013-08-31 22:27:00,70.8,68.6,29.01,East,96,4.0,5.0,93,0.00,,,0.03,WUHU216DAVISVP2,2013-09-01 02:27:00,
2013-08-31 22:28:00,70.7,68.5,29.01,ESE,110,5.0,5.0,93,0.00,,,0.03,WUHU216DAVISVP2,2013-09-01 02:28:00,
2013-08-31 22:29:00,70.7,68.5,29.01,ESE,102,1.0,5.0,93,0.00,,,0.03,WUHU216DAVISVP2,2013-09-01 02:29:00,
2013-08-31 22:31:00,70.6,68.4,29.01,ESE,109,2.0,5.0,93,0.00,,,0.03,WUHU216DAVISVP2,2013-09-01 02:31:00,
2013-08-31 22:32:00,70.6,68.4,29.01,ESE,109,0.0,5.0,93,0.00,,,0.03,WUHU216DAVISVP2,2013-09-01 02:32:00,
2013-08-31 22:33:00,70.6,68.4,29.01,ESE,109,0.0,5.0,93,0.00,,,0.03,WUHU216DAVISVP2,2013-09-01 02:33:00,
2013-08-31 22:34:00,70.6,68.4,29.01,ESE,109,0.0,5.0,93,0.00,,,0.03,WUHU216DAVISVP2,2013-09-01 02:34:00,
2013-08-31 22:36:00,70.6,68.8,29.01,ENE,77,1.0,5.0,94,0.00,,,0.03,WUHU216DAVISVP2,2013-09-01 02:36:00,
2013-08-31 22:37:00,70.6,68.8,29.01,ENE,76,0.0,5.0,94,0.00,,,0.03,WUHU216DAVISVP2,2013-09-01 02:37:00,
2013-08-31 22:38:00,70.5,68.7,29.01,ENE,77,1.0,5.0,94,0.00,,,0.03,WUHU216DAVISVP2,2013-09-01 02:38:00,
2013-08-31 22:39:00,70.5,68.7,29.01,SE,141,0.0,5.0,94,0.00,,,0.03,WUHU216DAVISVP2,2013-09-01 02:39:00,
2013-08-31 22:40:00,70.5,68.7,29.00,SE,140,0.0,5.0,94,0.00,,,0.03,WUHU216DAVISVP2,2013-09-01 02:40:00,
2013-08-31 22:41:00,70.5,68.7,29.00,SSE,148,0.0,5.0,94,0.00,,,0.03,WUHU216DAVISVP2,2013-09-01 02:41:00,
2013-08-31 22:42:00,70.5,68.7,29.00,SSE,148,0.0,5.0,94,0.00,,,0.03,WUHU216DAVISVP2,2013-09-01 02:42:00,
2013-08-31 22:44:00,70.4,68.6,29.00,SE,145,0.0,5.0,94,0.00,,,0.03,WUHU216DAVISVP2,2013-09-01 02:44:00,
2013-08-31 22:45:00,70.4,68.6,29.00,SE,145,0.0,5.0,94,0.00,,,0.03,WUHU216DAVISVP2,2013-09-01 02:45:00,
2013-08-31 22:46:00,70.4,68.6,28.99,SE,146,0.0,5.0,94,0.00,,,0.03,WUHU216DAVISVP2,2013-09-01 02:46:00,
2013-08-31 22:47:00,70.4,68.6,28.99,SE,146,0.0,5.0,94,0.00,,,0.03,WUHU216DAVISVP2,2013-09-01 02:47:00,
2013-08-31 22:49:00,70.3,68.5,28.99,SE,146,0.0,4.0,94,0.00,,,0.03,WUHU216DAVISVP2,2013-09-01 02:49:00,
2013-08-31 22:50:00,70.3,68.5,28.99,SE,145,0.0,4.0,94,0.00,,,0.03,WUHU216DAVISVP2,2013-09-01 02:50:00,
2013-08-31 22:51:00,70.3,68.5,28.99,SE,145,0.0,4.0,94,0.00,,,0.03,WUHU216DAVISVP2,2013-09-01 02:51:00,
2013-08-31 22:53:00,70.2,68.4,28.99,SE,145,1.0,4.0,94,0.00,,,0.03,WUHU216DAVISVP2,2013-09-01 02:53:00,
2013-08-31 22:54:00,70.2,68.4,28.99,SE,146,0.0,4.0,94,0.00,,,0.03,WUHU216DAVISVP2,2013-09-01 02:54:00,
2013-08-31 22:55:00,70.2,68.4,28.99,SE,145,0.0,4.0,94,0.00,,,0.03,WUHU216DAVISVP2,2013-09-01 02:55:00,
2013-08-31 22:56:00,70.2,68.4,28.99,SE,145,0.0,4.0,94,0.00,,,0.03,WUHU216DAVISVP2,2013-09-01 02:56:00,
2013-08-31 22:59:00,70.1,68.3,28.99,SE,146,0.0,4.0,94,0.00,,,0.03,WUHU216DAVISVP2,2013-09-01 02:59:00,
2013-08-31 23:00:00,70.1,68.3,28.99,SE,146,1.0,2.0,94,0.00,,,0.03,WUHU216DAVISVP2,2013-09-01 03:00:00,
2013-08-31 23:01:00,70.1,68.3,28.99,SE,145,0.0,2.0,94,0.00,,,0.03,WUHU216DAVISVP2,2013-09-01 03:01:00,
2013-08-31 23:04:00,70.1,68.3,28.99,SE,145,0.0,2.0,94,0.00,,,0.03,WUHU216DAVISVP2,2013-09-01 03:04:00,
2013-08-31 23:05:00,70.1,68.3,28.99,SE,145,0.0,2.0,94,0.00,,,0.03,WUHU216DAVISVP2,2013-09-01 03:05:00,
2013-08-31 23:06:00,70.1,68.3,28.99,SE,145,0.0,2.0,94,0.00,,,0.03,WUHU216DAVISVP2,2013-09-01 03:06:00,
2013-08-31 23:09:00,70.0,68.2,28.98,ESE,120,3.0,4.0,94,0.00,,,0.03,WUHU216DAVISVP2,2013-09-01 03:09:00,
2013-08-31 23:10:00,70.0,68.2,28.98,ESE,108,5.0,5.0,94,0.00,,,0.03,WUHU216DAVISVP2,2013-09-01 03:10:00,
2013-08-31 23:11:00,70.0,68.2,28.98,ESE,118,3.0,5.0,94,0.00,,,0.03,WUHU216DAVISVP2,2013-09-01 03:11:00,
2013-08-31 23:12:00,69.9,68.1,28.99,ESE,106,1.0,5.0,94,0.00,,,0.03,WUHU216DAVISVP2,2013-09-01 03:12:00,
2013-08-31 23:14:00,69.9,68.1,28.98,ESE,106,0.0,5.0,94,0.00,,,0.03,WUHU216DAVISVP2,2013-09-01 03:14:00,
2013-08-31 23:15:00,69.9,68.1,28.98,ESE,107,0.0,5.0,94,0.00,,,0.03,WUHU216DAVISVP2,2013-09-01 03:15:00,
2013-08-31 23:16:00,69.9,68.1,28.98,ESE,106,1.0,5.0,94,0.00,,,0.03,WUHU216DAVISVP2,2013-09-01 03:16:00,
2013-08-31 23:17:00,69.9,68.1,28.98,ESE,106,0.0,5.0,94,0.00,,,0.03,WUHU216DAVISVP2,2013-09-01 03:17:00,
2013-08-31 23:18:00,69.8,68.0,28.98,ESE,106,1.0,5.0,94,0.00,,,0.03,WUHU216DAVISVP2,2013-09-01 03:18:00,
2013-08-31 23:20:00,69.8,68.0,28.98,ESE,103,2.0,5.0,94,0.00,,,0.03,WUHU216DAVISVP2,2013-09-01 03:20:00,
2013-08-31 23:21:00,69.7,67.9,28.98,ESE,103,1.0,5.0,94,0.00,,,0.03,WUHU216DAVISVP2,2013-09-01 03:21:00,
2013-08-31 23:22:00,69.7,68.2,28.98,ESE,103,1.0,5.0,95,0.00,,,0.03,WUHU216DAVISVP2,2013-09-01 03:22:00,
2013-08-31 23:23:00,69.7,68.2,28.98,ESE,103,1.0,5.0,95,0.00,,,0.03,WUHU216DAVISVP2,2013-09-01 03:23:00,
2013-08-31 23:25:00,69.7,68.2,28.98,ESE,103,0.0,5.0,95,0.00,,,0.03,WUHU216DAVISVP2,2013-09-01 03:25:00,
2013-08-31 23:26:00,69.7,68.2,28.98,ESE,103,0.0,5.0,95,0.00,,,0.03,WUHU216DAVISVP2,2013-09-01 03:26:00,
2013-08-31 23:27:00,69.7,68.2,28.98,ESE,103,1.0,5.0,95,0.00,,,0.03,WUHU216DAVISVP2,2013-09-01 03:27:00,
2013-08-31 23:29:00,69.7,68.2,28.98,East,94,3.0,5.0,95,0.00,,,0.03,WUHU216DAVISVP2,2013-09-01 03:29:00,
2013-08-31 23:30:00,69.7,68.2,28.99,East,79,1.0,5.0,95,0.00,,,0.03,WUHU216DAVISVP2,2013-09-01 03:30:00,
2013-08-31 23:31:00,69.7,68.2,28.99,ESE,102,4.0,5.0,95,0.00,,,0.03,WUHU216DAVISVP2,2013-09-01 03:31:00,
2013-08-31 23:32:00,69.7,68.2,28.99,East,79,0.0,5.0,95,0.00,,,0.03,WUHU216DAVISVP2,2013-09-01 03:32:00,
2013-08-31 23:34:00,69.7,68.2,28.99,East,79,1.0,5.0,95,0.00,,,0.03,WUHU216DAVISVP2,2013-09-01 03:34:00,
2013-08-31 23:35:00,69.7,68.2,28.99,East,79,1.0,5.0,95,0.00,,,0.03,WUHU216DAVISVP2,2013-09-01 03:35:00,
2013-08-31 23:36:00,69.7,68.2,28.98,East,79,0.0,5.0,95,0.00,,,0.03,WUHU216DAVISVP2,2013-09-01 03:36:00,
2013-08-31 23:37:00,69.7,68.2,28.98,East,79,0.0,5.0,95,0.00,,,0.03,WUHU216DAVISVP2,2013-09-01 03:37:00,
2013-08-31 23:39:00,69.7,68.2,28.98,East,79,0.0,5.0,95,0.00,,,0.03,WUHU216DAVISVP2,2013-09-01 03:39:00,
2013-08-31 23:40:00,69.7,68.2,28.98,East,79,0.0,5.0,95,0.00,,,0.03,WUHU216DAVISVP2,2013-09-01 03:40:00,
2013-08-31 23:41:00,69.7,68.2,28.98,East,79,2.0,5.0,95,0.00,,,0.03,WUHU216DAVISVP2,2013-09-01 03:41:00,
2013-08-31 23:42:00,69.7,68.2,28.98,East,79,1.0,5.0,95,0.00,,,0.03,WUHU216DAVISVP2,2013-09-01 03:42:00,
2013-08-31 23:44:00,69.7,68.2,28.98,East,79,0.0,5.0,95,0.00,,,0.03,WUHU216DAVISVP2,2013-09-01 03:44:00,
2013-08-31 23:45:00,69.7,68.2,28.99,East,79,0.0,5.0,95,0.00,,,0.03,WUHU216DAVISVP2,2013-09-01 03:45:00,
2013-08-31 23:46:00,69.7,68.2,28.99,East,79,0.0,5.0,95,0.00,,,0.03,WUHU216DAVISVP2,2013-09-01 03:46:00,
2013-08-31 23:47:00,69.7,68.2,28.99,East,79,0.0,5.0,95,0.00,,,0.03,WUHU216DAVISVP2,2013-09-01 03:47:00,
2013-08-31 23:49:00,69.6,68.1,28.99,East,79,0.0,5.0,95,0.00,,,0.03,WUHU216DAVISVP2,2013-09-01 03:49:00,
2013-08-31 23:50:00,69.6,68.1,28.99,East,79,0.0,5.0,95,0.00,,,0.03,WUHU216DAVISVP2,2013-09-01 03:50:00,
2013-08-31 23:51:00,69.6,68.1,28.99,East,79,0.0,5.0,95,0.00,,,0.03,WUHU216DAVISVP2,2013-09-01 03:51:00,
2013-08-31 23:52:00,69.6,68.1,28.99,East,79,0.0,4.0,95,0.00,,,0.03,WUHU216DAVISVP2,2013-09-01 03:52:00,
2013-08-31 23:54:00,69.6,68.1,28.98,East,79,0.0,4.0,95,0.00,,,0.03,WUHU216DAVISVP2,2013-09-01 03:54:00,
2013-08-31 23:55:00,69.6,68.1,28.98,East,79,0.0,4.0,95,0.00,,,0.03,WUHU216DAVISVP2,2013-09-01 03:55:00,
2013-08-31 23:56:00,69.6,68.1,28.98,East,79,0.0,4.0,95,0.00,,,0.03,WUHU216DAVISVP2,2013-09-01 03:56:00,
2013-08-31 23:57:00,69.6,68.1,28.98,East,79,0.0,4.0,95,0.00,,,0.03,WUHU216DAVISVP2,2013-09-01 03:57:00,
2013-08-31 23:59:00,69.6,68.1,28.98,East,79,0.0,4.0,95,0.00,,,0.03,WUHU216DAVISVP2,2013-09-01 03:59:00,